<?xml version="1.0" encoding="UTF-8" standalone="no" ?>
<gpx xmlns="http://www.topografix.com/GPX/1/1" xmlns:xsi="http://www.w3.org/2001/XMLSchema-instance" xsi:schemaLocation="http://www.topografix.com/GPX/1/1 http://www.topografix.com/GPX/1/1/gpx.xsd" version="1.1" creator="VisuGPX - https://www.visugpx.com">
  <metadata>
    <name>La Bardenas Reales</name>
  </metadata>
  <trk>
    <name><![CDATA[3.1 Polygone de Tir]]></name>
    <extensions>
      <line xmlns="http://www.topografix.com/GPX/gpx_style/0/2">
        <color>0080ff</color>
        <opacity>0.5</opacity>
        <width>12</width>
      </line>
    </extensions>
    <trkseg>
      <trkpt lat="42.21791" lon="-1.46355">
        <ele>300.2</ele>
        <time>2014-11-29T14:16:41Z</time>
      </trkpt>
      <trkpt lat="42.21755" lon="-1.46292">
        <ele>302.4</ele>
        <time>2014-11-29T14:16:41Z</time>
      </trkpt>
      <trkpt lat="42.21715" lon="-1.46213">
        <ele>302.1</ele>
        <time>2014-11-29T14:16:41Z</time>
      </trkpt>
      <trkpt lat="42.21693" lon="-1.46172">
        <ele>301.7</ele>
        <time>2014-11-29T14:16:41Z</time>
      </trkpt>
      <trkpt lat="42.21664" lon="-1.46133">
        <ele>302</ele>
        <time>2014-11-29T14:16:41Z</time>
      </trkpt>
      <trkpt lat="42.21634" lon="-1.46095">
        <ele>301.9</ele>
        <time>2014-11-29T14:16:41Z</time>
      </trkpt>
      <trkpt lat="42.21591" lon="-1.46039">
        <ele>303.1</ele>
        <time>2014-11-29T14:16:41Z</time>
      </trkpt>
      <trkpt lat="42.21555" lon="-1.45989">
        <ele>303.3</ele>
        <time>2014-11-29T14:16:41Z</time>
      </trkpt>
      <trkpt lat="42.21529" lon="-1.45944">
        <ele>302.7</ele>
        <time>2014-11-29T14:16:41Z</time>
      </trkpt>
      <trkpt lat="42.21497" lon="-1.45883">
        <ele>302.4</ele>
        <time>2014-11-29T14:16:41Z</time>
      </trkpt>
      <trkpt lat="42.21468" lon="-1.45832">
        <ele>302.6</ele>
        <time>2014-11-29T14:16:41Z</time>
      </trkpt>
      <trkpt lat="42.21439" lon="-1.45782">
        <ele>302.2</ele>
        <time>2014-11-29T14:16:41Z</time>
      </trkpt>
      <trkpt lat="42.2142" lon="-1.45765">
        <ele>301.3</ele>
        <time>2014-11-29T14:16:41Z</time>
      </trkpt>
      <trkpt lat="42.21397" lon="-1.45754">
        <ele>301.5</ele>
        <time>2014-11-29T14:16:41Z</time>
      </trkpt>
      <trkpt lat="42.21374" lon="-1.45743">
        <ele>302.2</ele>
        <time>2014-11-29T14:16:41Z</time>
      </trkpt>
      <trkpt lat="42.21351" lon="-1.45721">
        <ele>303.3</ele>
        <time>2014-11-29T14:16:41Z</time>
      </trkpt>
      <trkpt lat="42.2133" lon="-1.4569">
        <ele>304.4</ele>
        <time>2014-11-29T14:16:41Z</time>
      </trkpt>
      <trkpt lat="42.21292" lon="-1.45643">
        <ele>303.2</ele>
        <time>2014-11-29T14:16:41Z</time>
      </trkpt>
      <trkpt lat="42.21271" lon="-1.45616">
        <ele>302.1</ele>
        <time>2014-11-29T14:16:41Z</time>
      </trkpt>
      <trkpt lat="42.21251" lon="-1.4559">
        <ele>301.1</ele>
        <time>2014-11-29T14:16:41Z</time>
      </trkpt>
      <trkpt lat="42.21229" lon="-1.45561">
        <ele>301.1</ele>
        <time>2014-11-29T14:16:41Z</time>
      </trkpt>
      <trkpt lat="42.21197" lon="-1.45518">
        <ele>301.6</ele>
        <time>2014-11-29T14:16:41Z</time>
      </trkpt>
      <trkpt lat="42.21167" lon="-1.45478">
        <ele>302.2</ele>
        <time>2014-11-29T14:16:41Z</time>
      </trkpt>
      <trkpt lat="42.21138" lon="-1.45438">
        <ele>303.2</ele>
        <time>2014-11-29T14:16:41Z</time>
      </trkpt>
      <trkpt lat="42.21099" lon="-1.45386">
        <ele>305.2</ele>
        <time>2014-11-29T14:16:41Z</time>
      </trkpt>
      <trkpt lat="42.21086" lon="-1.45364">
        <ele>306.2</ele>
        <time>2014-11-29T14:16:41Z</time>
      </trkpt>
      <trkpt lat="42.21032" lon="-1.45292">
        <ele>304.5</ele>
        <time>2014-11-29T14:16:41Z</time>
      </trkpt>
      <trkpt lat="42.20988" lon="-1.45232">
        <ele>303.8</ele>
        <time>2014-11-29T14:16:41Z</time>
      </trkpt>
      <trkpt lat="42.20926" lon="-1.45149">
        <ele>302.6</ele>
        <time>2014-11-29T14:16:41Z</time>
      </trkpt>
      <trkpt lat="42.20869" lon="-1.45078">
        <ele>303.5</ele>
        <time>2014-11-29T14:16:41Z</time>
      </trkpt>
      <trkpt lat="42.20803" lon="-1.44988">
        <ele>306</ele>
        <time>2014-11-29T14:16:41Z</time>
      </trkpt>
      <trkpt lat="42.20759" lon="-1.44928">
        <ele>307.6</ele>
        <time>2014-11-29T14:16:41Z</time>
      </trkpt>
      <trkpt lat="42.20712" lon="-1.44871">
        <ele>308.6</ele>
        <time>2014-11-29T14:16:41Z</time>
      </trkpt>
      <trkpt lat="42.20669" lon="-1.44814">
        <ele>310.6</ele>
        <time>2014-11-29T14:16:41Z</time>
      </trkpt>
      <trkpt lat="42.20615" lon="-1.44738">
        <ele>309.4</ele>
        <time>2014-11-29T14:16:41Z</time>
      </trkpt>
      <trkpt lat="42.20586" lon="-1.44694">
        <ele>309</ele>
        <time>2014-11-29T14:16:41Z</time>
      </trkpt>
      <trkpt lat="42.20573" lon="-1.44676">
        <ele>308.8</ele>
        <time>2014-11-29T14:16:41Z</time>
      </trkpt>
      <trkpt lat="42.20554" lon="-1.44652">
        <ele>308.5</ele>
        <time>2014-11-29T14:16:41Z</time>
      </trkpt>
      <trkpt lat="42.20517" lon="-1.44603">
        <ele>308.8</ele>
        <time>2014-11-29T14:16:41Z</time>
      </trkpt>
      <trkpt lat="42.20469" lon="-1.44541">
        <ele>310.6</ele>
        <time>2014-11-29T14:16:41Z</time>
      </trkpt>
      <trkpt lat="42.20428" lon="-1.44488">
        <ele>311.9</ele>
        <time>2014-11-29T14:16:41Z</time>
      </trkpt>
      <trkpt lat="42.20404" lon="-1.4446">
        <ele>312.9</ele>
        <time>2014-11-29T14:16:41Z</time>
      </trkpt>
      <trkpt lat="42.20386" lon="-1.44436">
        <ele>313.6</ele>
        <time>2014-11-29T14:16:41Z</time>
      </trkpt>
      <trkpt lat="42.20369" lon="-1.44411">
        <ele>314.3</ele>
        <time>2014-11-29T14:16:41Z</time>
      </trkpt>
      <trkpt lat="42.20329" lon="-1.44355">
        <ele>315.7</ele>
        <time>2014-11-29T14:16:41Z</time>
      </trkpt>
      <trkpt lat="42.20293" lon="-1.44304">
        <ele>317.6</ele>
        <time>2014-11-29T14:16:41Z</time>
      </trkpt>
      <trkpt lat="42.20256" lon="-1.44253">
        <ele>319.9</ele>
        <time>2014-11-29T14:16:41Z</time>
      </trkpt>
      <trkpt lat="42.2019" lon="-1.44159">
        <ele>316.7</ele>
        <time>2014-11-29T14:16:41Z</time>
      </trkpt>
      <trkpt lat="42.20148" lon="-1.44101">
        <ele>317.9</ele>
        <time>2014-11-29T14:16:41Z</time>
      </trkpt>
      <trkpt lat="42.20103" lon="-1.44036">
        <ele>318.7</ele>
        <time>2014-11-29T14:16:41Z</time>
      </trkpt>
      <trkpt lat="42.20064" lon="-1.43983">
        <ele>319.4</ele>
        <time>2014-11-29T14:16:41Z</time>
      </trkpt>
      <trkpt lat="42.20029" lon="-1.43935">
        <ele>320.4</ele>
        <time>2014-11-29T14:16:41Z</time>
      </trkpt>
      <trkpt lat="42.19983" lon="-1.43873">
        <ele>321.1</ele>
        <time>2014-11-29T14:16:41Z</time>
      </trkpt>
      <trkpt lat="42.19919" lon="-1.43785">
        <ele>323.9</ele>
        <time>2014-11-29T14:16:41Z</time>
      </trkpt>
      <trkpt lat="42.19875" lon="-1.4372">
        <ele>324.6</ele>
        <time>2014-11-29T14:16:41Z</time>
      </trkpt>
      <trkpt lat="42.19863" lon="-1.43702">
        <ele>324.5</ele>
        <time>2014-11-29T14:16:41Z</time>
      </trkpt>
      <trkpt lat="42.19856" lon="-1.43659">
        <ele>325.8</ele>
        <time>2014-11-29T14:16:41Z</time>
      </trkpt>
      <trkpt lat="42.19847" lon="-1.43574">
        <ele>332</ele>
        <time>2014-11-29T14:16:41Z</time>
      </trkpt>
      <trkpt lat="42.19844" lon="-1.43508">
        <ele>338.3</ele>
        <time>2014-11-29T14:16:41Z</time>
      </trkpt>
      <trkpt lat="42.19845" lon="-1.43424">
        <ele>340</ele>
        <time>2014-11-29T14:16:41Z</time>
      </trkpt>
      <trkpt lat="42.19841" lon="-1.43376">
        <ele>339.8</ele>
        <time>2014-11-29T14:16:41Z</time>
      </trkpt>
      <trkpt lat="42.19833" lon="-1.4333">
        <ele>339.2</ele>
        <time>2014-11-29T14:16:41Z</time>
      </trkpt>
      <trkpt lat="42.19814" lon="-1.43264">
        <ele>341.5</ele>
        <time>2014-11-29T14:16:41Z</time>
      </trkpt>
      <trkpt lat="42.1979" lon="-1.43186">
        <ele>340.6</ele>
        <time>2014-11-29T14:16:41Z</time>
      </trkpt>
      <trkpt lat="42.19757" lon="-1.43072">
        <ele>340.9</ele>
        <time>2014-11-29T14:16:41Z</time>
      </trkpt>
      <trkpt lat="42.19743" lon="-1.43035">
        <ele>339.4</ele>
        <time>2014-11-29T14:16:41Z</time>
      </trkpt>
      <trkpt lat="42.19728" lon="-1.43009">
        <ele>337.8</ele>
        <time>2014-11-29T14:16:41Z</time>
      </trkpt>
      <trkpt lat="42.19711" lon="-1.42977">
        <ele>337.1</ele>
        <time>2014-11-29T14:16:41Z</time>
      </trkpt>
      <trkpt lat="42.19696" lon="-1.4293">
        <ele>337.1</ele>
        <time>2014-11-29T14:16:41Z</time>
      </trkpt>
      <trkpt lat="42.19684" lon="-1.42866">
        <ele>337.6</ele>
        <time>2014-11-29T14:16:41Z</time>
      </trkpt>
      <trkpt lat="42.19675" lon="-1.42822">
        <ele>338.6</ele>
        <time>2014-11-29T14:16:41Z</time>
      </trkpt>
      <trkpt lat="42.19659" lon="-1.42655">
        <ele>344.2</ele>
        <time>2014-11-29T14:16:41Z</time>
      </trkpt>
      <trkpt lat="42.19652" lon="-1.42575">
        <ele>345.7</ele>
        <time>2014-11-29T14:16:41Z</time>
      </trkpt>
      <trkpt lat="42.19647" lon="-1.42514">
        <ele>346.2</ele>
        <time>2014-11-29T14:16:41Z</time>
      </trkpt>
      <trkpt lat="42.19637" lon="-1.42419">
        <ele>345.9</ele>
        <time>2014-11-29T14:16:41Z</time>
      </trkpt>
      <trkpt lat="42.19629" lon="-1.42334">
        <ele>346.2</ele>
        <time>2014-11-29T14:16:41Z</time>
      </trkpt>
      <trkpt lat="42.19621" lon="-1.42261">
        <ele>349.1</ele>
        <time>2014-11-29T14:16:41Z</time>
      </trkpt>
      <trkpt lat="42.19613" lon="-1.42174">
        <ele>355.2</ele>
        <time>2014-11-29T14:16:41Z</time>
      </trkpt>
      <trkpt lat="42.19604" lon="-1.42089">
        <ele>362.1</ele>
        <time>2014-11-29T14:16:41Z</time>
      </trkpt>
      <trkpt lat="42.19602" lon="-1.42056">
        <ele>362.4</ele>
        <time>2014-11-29T14:16:41Z</time>
      </trkpt>
      <trkpt lat="42.19592" lon="-1.42025">
        <ele>361</ele>
        <time>2014-11-29T14:16:41Z</time>
      </trkpt>
      <trkpt lat="42.19578" lon="-1.41975">
        <ele>358.9</ele>
        <time>2014-11-29T14:16:41Z</time>
      </trkpt>
      <trkpt lat="42.19557" lon="-1.41899">
        <ele>355.8</ele>
        <time>2014-11-29T14:16:41Z</time>
      </trkpt>
      <trkpt lat="42.19533" lon="-1.41819">
        <ele>353.5</ele>
        <time>2014-11-29T14:16:41Z</time>
      </trkpt>
      <trkpt lat="42.19512" lon="-1.41747">
        <ele>352.4</ele>
        <time>2014-11-29T14:16:41Z</time>
      </trkpt>
      <trkpt lat="42.19486" lon="-1.41659">
        <ele>350.4</ele>
        <time>2014-11-29T14:16:41Z</time>
      </trkpt>
      <trkpt lat="42.19462" lon="-1.41581">
        <ele>349.6</ele>
        <time>2014-11-29T14:16:41Z</time>
      </trkpt>
      <trkpt lat="42.19442" lon="-1.4151">
        <ele>349</ele>
        <time>2014-11-29T14:16:41Z</time>
      </trkpt>
      <trkpt lat="42.19425" lon="-1.41453">
        <ele>349.5</ele>
        <time>2014-11-29T14:16:41Z</time>
      </trkpt>
      <trkpt lat="42.19406" lon="-1.41394">
        <ele>350.2</ele>
        <time>2014-11-29T14:16:41Z</time>
      </trkpt>
      <trkpt lat="42.1939" lon="-1.41349">
        <ele>350.7</ele>
        <time>2014-11-29T14:16:41Z</time>
      </trkpt>
      <trkpt lat="42.19382" lon="-1.41336">
        <ele>350.9</ele>
        <time>2014-11-29T14:16:41Z</time>
      </trkpt>
      <trkpt lat="42.19372" lon="-1.41327">
        <ele>351</ele>
        <time>2014-11-29T14:16:41Z</time>
      </trkpt>
      <trkpt lat="42.19358" lon="-1.41317">
        <ele>351</ele>
        <time>2014-11-29T14:16:41Z</time>
      </trkpt>
      <trkpt lat="42.19336" lon="-1.41307">
        <ele>351</ele>
        <time>2014-11-29T14:16:41Z</time>
      </trkpt>
      <trkpt lat="42.19295" lon="-1.41289">
        <ele>349.9</ele>
        <time>2014-11-29T14:16:41Z</time>
      </trkpt>
      <trkpt lat="42.1923" lon="-1.41261">
        <ele>348.9</ele>
        <time>2014-11-29T14:16:41Z</time>
      </trkpt>
      <trkpt lat="42.1918" lon="-1.41239">
        <ele>348</ele>
        <time>2014-11-29T14:16:41Z</time>
      </trkpt>
      <trkpt lat="42.19158" lon="-1.41229">
        <ele>347.9</ele>
        <time>2014-11-29T14:16:41Z</time>
      </trkpt>
      <trkpt lat="42.191" lon="-1.41206">
        <ele>348.3</ele>
        <time>2014-11-29T14:16:41Z</time>
      </trkpt>
      <trkpt lat="42.19079" lon="-1.41195">
        <ele>348.3</ele>
        <time>2014-11-29T14:16:41Z</time>
      </trkpt>
      <trkpt lat="42.1906" lon="-1.41185">
        <ele>348.3</ele>
        <time>2014-11-29T14:16:41Z</time>
      </trkpt>
      <trkpt lat="42.19046" lon="-1.41181">
        <ele>348.3</ele>
        <time>2014-11-29T14:16:41Z</time>
      </trkpt>
      <trkpt lat="42.19003" lon="-1.41178">
        <ele>347.9</ele>
        <time>2014-11-29T14:16:41Z</time>
      </trkpt>
      <trkpt lat="42.18968" lon="-1.41179">
        <ele>346.7</ele>
        <time>2014-11-29T14:16:41Z</time>
      </trkpt>
      <trkpt lat="42.18918" lon="-1.41183">
        <ele>344.9</ele>
        <time>2014-11-29T14:16:41Z</time>
      </trkpt>
      <trkpt lat="42.18848" lon="-1.41186">
        <ele>342.3</ele>
        <time>2014-11-29T14:16:41Z</time>
      </trkpt>
      <trkpt lat="42.18787" lon="-1.4119">
        <ele>340.4</ele>
        <time>2014-11-29T14:16:41Z</time>
      </trkpt>
      <trkpt lat="42.18766" lon="-1.41189">
        <ele>339.7</ele>
        <time>2014-11-29T14:16:41Z</time>
      </trkpt>
      <trkpt lat="42.18731" lon="-1.41181">
        <ele>338.5</ele>
        <time>2014-11-29T14:16:41Z</time>
      </trkpt>
      <trkpt lat="42.18698" lon="-1.41165">
        <ele>337.1</ele>
        <time>2014-11-29T14:16:41Z</time>
      </trkpt>
      <trkpt lat="42.18672" lon="-1.41148">
        <ele>335.8</ele>
        <time>2014-11-29T14:16:41Z</time>
      </trkpt>
      <trkpt lat="42.18623" lon="-1.41119">
        <ele>333.1</ele>
        <time>2014-11-29T14:16:41Z</time>
      </trkpt>
      <trkpt lat="42.18577" lon="-1.41092">
        <ele>331.2</ele>
        <time>2014-11-29T14:16:41Z</time>
      </trkpt>
      <trkpt lat="42.18524" lon="-1.41061">
        <ele>331.8</ele>
        <time>2014-11-29T14:16:41Z</time>
      </trkpt>
      <trkpt lat="42.1845" lon="-1.41019">
        <ele>331.5</ele>
        <time>2014-11-29T14:16:41Z</time>
      </trkpt>
      <trkpt lat="42.18383" lon="-1.40989">
        <ele>330.6</ele>
        <time>2014-11-29T14:16:41Z</time>
      </trkpt>
      <trkpt lat="42.18349" lon="-1.40977">
        <ele>330</ele>
        <time>2014-11-29T14:16:41Z</time>
      </trkpt>
      <trkpt lat="42.18333" lon="-1.40965">
        <ele>329.6</ele>
        <time>2014-11-29T14:16:41Z</time>
      </trkpt>
      <trkpt lat="42.18322" lon="-1.40949">
        <ele>329.3</ele>
        <time>2014-11-29T14:16:41Z</time>
      </trkpt>
      <trkpt lat="42.18291" lon="-1.40903">
        <ele>329.5</ele>
        <time>2014-11-29T14:16:41Z</time>
      </trkpt>
      <trkpt lat="42.1828" lon="-1.40887">
        <ele>330</ele>
        <time>2014-11-29T14:16:41Z</time>
      </trkpt>
      <trkpt lat="42.18273" lon="-1.40872">
        <ele>330.6</ele>
        <time>2014-11-29T14:16:41Z</time>
      </trkpt>
      <trkpt lat="42.18253" lon="-1.40848">
        <ele>331.5</ele>
        <time>2014-11-29T14:16:41Z</time>
      </trkpt>
      <trkpt lat="42.1823" lon="-1.40827">
        <ele>332.3</ele>
        <time>2014-11-29T14:16:41Z</time>
      </trkpt>
      <trkpt lat="42.18193" lon="-1.40795">
        <ele>333.1</ele>
        <time>2014-11-29T14:16:41Z</time>
      </trkpt>
      <trkpt lat="42.18181" lon="-1.4078">
        <ele>333.5</ele>
        <time>2014-11-29T14:16:41Z</time>
      </trkpt>
      <trkpt lat="42.18141" lon="-1.4075">
        <ele>334.6</ele>
        <time>2014-11-29T14:16:41Z</time>
      </trkpt>
      <trkpt lat="42.18115" lon="-1.40734">
        <ele>335.3</ele>
        <time>2014-11-29T14:16:41Z</time>
      </trkpt>
      <trkpt lat="42.18098" lon="-1.40726">
        <ele>335.7</ele>
        <time>2014-11-29T14:16:41Z</time>
      </trkpt>
      <trkpt lat="42.18084" lon="-1.40725">
        <ele>336</ele>
        <time>2014-11-29T14:16:41Z</time>
      </trkpt>
      <trkpt lat="42.18042" lon="-1.40729">
        <ele>336.6</ele>
        <time>2014-11-29T14:16:41Z</time>
      </trkpt>
      <trkpt lat="42.18" lon="-1.40731">
        <ele>337.3</ele>
        <time>2014-11-29T14:16:41Z</time>
      </trkpt>
      <trkpt lat="42.17986" lon="-1.40736">
        <ele>337.6</ele>
        <time>2014-11-29T14:16:41Z</time>
      </trkpt>
      <trkpt lat="42.17962" lon="-1.40756">
        <ele>338.2</ele>
        <time>2014-11-29T14:16:41Z</time>
      </trkpt>
      <trkpt lat="42.17935" lon="-1.40787">
        <ele>338.9</ele>
        <time>2014-11-29T14:16:41Z</time>
      </trkpt>
      <trkpt lat="42.17914" lon="-1.40808">
        <ele>339.2</ele>
        <time>2014-11-29T14:16:41Z</time>
      </trkpt>
      <trkpt lat="42.17879" lon="-1.4085">
        <ele>337.9</ele>
        <time>2014-11-29T14:16:41Z</time>
      </trkpt>
      <trkpt lat="42.17857" lon="-1.40885">
        <ele>337.3</ele>
        <time>2014-11-29T14:16:41Z</time>
      </trkpt>
      <trkpt lat="42.17834" lon="-1.40923">
        <ele>337.2</ele>
        <time>2014-11-29T14:16:41Z</time>
      </trkpt>
      <trkpt lat="42.17801" lon="-1.40977">
        <ele>336.3</ele>
        <time>2014-11-29T14:16:41Z</time>
      </trkpt>
      <trkpt lat="42.17785" lon="-1.41013">
        <ele>335.7</ele>
        <time>2014-11-29T14:16:41Z</time>
      </trkpt>
      <trkpt lat="42.1776" lon="-1.41082">
        <ele>335.5</ele>
        <time>2014-11-29T14:16:41Z</time>
      </trkpt>
      <trkpt lat="42.17744" lon="-1.41135">
        <ele>335.3</ele>
        <time>2014-11-29T14:16:41Z</time>
      </trkpt>
      <trkpt lat="42.17734" lon="-1.4117">
        <ele>334.9</ele>
        <time>2014-11-29T14:16:41Z</time>
      </trkpt>
      <trkpt lat="42.17726" lon="-1.4121">
        <ele>333.5</ele>
        <time>2014-11-29T14:16:41Z</time>
      </trkpt>
      <trkpt lat="42.17714" lon="-1.41265">
        <ele>331.8</ele>
        <time>2014-11-29T14:16:41Z</time>
      </trkpt>
      <trkpt lat="42.17704" lon="-1.41288">
        <ele>331.3</ele>
        <time>2014-11-29T14:16:41Z</time>
      </trkpt>
      <trkpt lat="42.17689" lon="-1.41304">
        <ele>330.4</ele>
        <time>2014-11-29T14:16:41Z</time>
      </trkpt>
      <trkpt lat="42.17669" lon="-1.41327">
        <ele>329.2</ele>
        <time>2014-11-29T14:16:41Z</time>
      </trkpt>
      <trkpt lat="42.17651" lon="-1.41351">
        <ele>328.2</ele>
        <time>2014-11-29T14:16:41Z</time>
      </trkpt>
      <trkpt lat="42.17579" lon="-1.4144">
        <ele>325.4</ele>
        <time>2014-11-29T14:16:41Z</time>
      </trkpt>
      <trkpt lat="42.17542" lon="-1.41489">
        <ele>326.9</ele>
        <time>2014-11-29T14:16:41Z</time>
      </trkpt>
      <trkpt lat="42.17505" lon="-1.41535">
        <ele>327.1</ele>
        <time>2014-11-29T14:16:41Z</time>
      </trkpt>
      <trkpt lat="42.17459" lon="-1.41594">
        <ele>325.4</ele>
        <time>2014-11-29T14:16:41Z</time>
      </trkpt>
      <trkpt lat="42.17433" lon="-1.41625">
        <ele>325</ele>
        <time>2014-11-29T14:16:41Z</time>
      </trkpt>
      <trkpt lat="42.17397" lon="-1.41671">
        <ele>324.7</ele>
        <time>2014-11-29T14:16:41Z</time>
      </trkpt>
      <trkpt lat="42.1737" lon="-1.41702">
        <ele>324.7</ele>
        <time>2014-11-29T14:16:41Z</time>
      </trkpt>
      <trkpt lat="42.17356" lon="-1.41723">
        <ele>325.1</ele>
        <time>2014-11-29T14:16:41Z</time>
      </trkpt>
      <trkpt lat="42.17328" lon="-1.41758">
        <ele>326.1</ele>
        <time>2014-11-29T14:16:41Z</time>
      </trkpt>
      <trkpt lat="42.17296" lon="-1.41796">
        <ele>327.2</ele>
        <time>2014-11-29T14:16:41Z</time>
      </trkpt>
      <trkpt lat="42.17273" lon="-1.41822">
        <ele>328.6</ele>
        <time>2014-11-29T14:16:41Z</time>
      </trkpt>
      <trkpt lat="42.17237" lon="-1.41866">
        <ele>330.1</ele>
        <time>2014-11-29T14:16:41Z</time>
      </trkpt>
      <trkpt lat="42.17207" lon="-1.41901">
        <ele>330.5</ele>
        <time>2014-11-29T14:16:41Z</time>
      </trkpt>
      <trkpt lat="42.17181" lon="-1.41929">
        <ele>330.9</ele>
        <time>2014-11-29T14:16:41Z</time>
      </trkpt>
      <trkpt lat="42.17158" lon="-1.41958">
        <ele>330.9</ele>
        <time>2014-11-29T14:16:41Z</time>
      </trkpt>
      <trkpt lat="42.17142" lon="-1.41982">
        <ele>331.3</ele>
        <time>2014-11-29T14:16:41Z</time>
      </trkpt>
      <trkpt lat="42.17127" lon="-1.42012">
        <ele>332.1</ele>
        <time>2014-11-29T14:16:41Z</time>
      </trkpt>
      <trkpt lat="42.17117" lon="-1.42038">
        <ele>332.7</ele>
        <time>2014-11-29T14:16:41Z</time>
      </trkpt>
      <trkpt lat="42.17106" lon="-1.42065">
        <ele>333.6</ele>
        <time>2014-11-29T14:16:41Z</time>
      </trkpt>
      <trkpt lat="42.17075" lon="-1.42138">
        <ele>332.9</ele>
        <time>2014-11-29T14:16:41Z</time>
      </trkpt>
      <trkpt lat="42.17038" lon="-1.4221">
        <ele>327.3</ele>
        <time>2014-11-29T14:16:41Z</time>
      </trkpt>
      <trkpt lat="42.17001" lon="-1.42264">
        <ele>323.9</ele>
        <time>2014-11-29T14:16:41Z</time>
      </trkpt>
      <trkpt lat="42.16977" lon="-1.42296">
        <ele>322.7</ele>
        <time>2014-11-29T14:16:41Z</time>
      </trkpt>
      <trkpt lat="42.1694" lon="-1.42335">
        <ele>320.8</ele>
        <time>2014-11-29T14:16:41Z</time>
      </trkpt>
      <trkpt lat="42.16913" lon="-1.42369">
        <ele>319</ele>
        <time>2014-11-29T14:16:41Z</time>
      </trkpt>
      <trkpt lat="42.16878" lon="-1.4241">
        <ele>316.8</ele>
        <time>2014-11-29T14:16:41Z</time>
      </trkpt>
      <trkpt lat="42.16858" lon="-1.42432">
        <ele>315.6</ele>
        <time>2014-11-29T14:16:41Z</time>
      </trkpt>
      <trkpt lat="42.16846" lon="-1.42439">
        <ele>314.9</ele>
        <time>2014-11-29T14:16:41Z</time>
      </trkpt>
      <trkpt lat="42.1683" lon="-1.42451">
        <ele>314.1</ele>
        <time>2014-11-29T14:16:41Z</time>
      </trkpt>
      <trkpt lat="42.16812" lon="-1.42471">
        <ele>313.6</ele>
        <time>2014-11-29T14:16:41Z</time>
      </trkpt>
      <trkpt lat="42.16796" lon="-1.42498">
        <ele>313</ele>
        <time>2014-11-29T14:16:41Z</time>
      </trkpt>
      <trkpt lat="42.1677" lon="-1.4254">
        <ele>313.6</ele>
        <time>2014-11-29T14:16:41Z</time>
      </trkpt>
      <trkpt lat="42.16743" lon="-1.42586">
        <ele>315.3</ele>
        <time>2014-11-29T14:16:41Z</time>
      </trkpt>
      <trkpt lat="42.16712" lon="-1.42634">
        <ele>315.8</ele>
        <time>2014-11-29T14:16:41Z</time>
      </trkpt>
      <trkpt lat="42.16696" lon="-1.42654">
        <ele>316</ele>
        <time>2014-11-29T14:16:41Z</time>
      </trkpt>
      <trkpt lat="42.16678" lon="-1.42669">
        <ele>316.3</ele>
        <time>2014-11-29T14:16:41Z</time>
      </trkpt>
      <trkpt lat="42.16646" lon="-1.42701">
        <ele>314.8</ele>
        <time>2014-11-29T14:16:41Z</time>
      </trkpt>
      <trkpt lat="42.1659" lon="-1.42769">
        <ele>312.1</ele>
        <time>2014-11-29T14:16:41Z</time>
      </trkpt>
      <trkpt lat="42.16563" lon="-1.42801">
        <ele>312.6</ele>
        <time>2014-11-29T14:16:41Z</time>
      </trkpt>
      <trkpt lat="42.16535" lon="-1.42831">
        <ele>313.7</ele>
        <time>2014-11-29T14:16:41Z</time>
      </trkpt>
      <trkpt lat="42.16506" lon="-1.42861">
        <ele>314.8</ele>
        <time>2014-11-29T14:16:41Z</time>
      </trkpt>
      <trkpt lat="42.16482" lon="-1.42886">
        <ele>315.7</ele>
        <time>2014-11-29T14:16:41Z</time>
      </trkpt>
      <trkpt lat="42.1645" lon="-1.42926">
        <ele>316.5</ele>
        <time>2014-11-29T14:16:41Z</time>
      </trkpt>
      <trkpt lat="42.1641" lon="-1.42974">
        <ele>316</ele>
        <time>2014-11-29T14:16:41Z</time>
      </trkpt>
      <trkpt lat="42.16358" lon="-1.43033">
        <ele>316.4</ele>
        <time>2014-11-29T14:16:41Z</time>
      </trkpt>
      <trkpt lat="42.16336" lon="-1.4306">
        <ele>317.4</ele>
        <time>2014-11-29T14:16:41Z</time>
      </trkpt>
      <trkpt lat="42.16317" lon="-1.43103">
        <ele>318.5</ele>
        <time>2014-11-29T14:16:41Z</time>
      </trkpt>
      <trkpt lat="42.163" lon="-1.43149">
        <ele>319</ele>
        <time>2014-11-29T14:16:41Z</time>
      </trkpt>
      <trkpt lat="42.16287" lon="-1.43194">
        <ele>318.5</ele>
        <time>2014-11-29T14:16:41Z</time>
      </trkpt>
      <trkpt lat="42.16284" lon="-1.43236">
        <ele>317.8</ele>
        <time>2014-11-29T14:16:41Z</time>
      </trkpt>
      <trkpt lat="42.16285" lon="-1.4327">
        <ele>317</ele>
        <time>2014-11-29T14:16:41Z</time>
      </trkpt>
      <trkpt lat="42.16297" lon="-1.43338">
        <ele>314.6</ele>
        <time>2014-11-29T14:16:41Z</time>
      </trkpt>
      <trkpt lat="42.16297" lon="-1.43339">
        <ele>314.6</ele>
        <time>2014-11-29T14:36:57Z</time>
      </trkpt>
      <trkpt lat="42.16307" lon="-1.43366">
        <ele>316.1</ele>
        <extensions>
          <visugpx:TrkExtension xmlns:visugpx="https://www.visugpx.com/editgpx/">
            <visugpx:node>1</visugpx:node>
            </visugpx:TrkExtension>
        </extensions>
      </trkpt>
      <trkpt lat="42.16337" lon="-1.43431">
        <ele>312.3</ele>
        <time>2014-11-29T14:36:57Z</time>
      </trkpt>
      <trkpt lat="42.16369" lon="-1.43495">
        <ele>313.4</ele>
        <time>2014-11-29T14:36:57Z</time>
      </trkpt>
      <trkpt lat="42.16394" lon="-1.43544">
        <ele>314.3</ele>
        <time>2014-11-29T14:36:57Z</time>
      </trkpt>
      <trkpt lat="42.1642" lon="-1.43593">
        <ele>314.8</ele>
        <time>2014-11-29T14:36:57Z</time>
      </trkpt>
      <trkpt lat="42.16442" lon="-1.43636">
        <ele>313.8</ele>
        <time>2014-11-29T14:36:57Z</time>
      </trkpt>
      <trkpt lat="42.16466" lon="-1.43683">
        <ele>313.2</ele>
        <time>2014-11-29T14:36:57Z</time>
      </trkpt>
      <trkpt lat="42.16492" lon="-1.4374">
        <ele>314</ele>
        <time>2014-11-29T14:36:57Z</time>
      </trkpt>
      <trkpt lat="42.165" lon="-1.43759">
        <ele>314</ele>
        <time>2014-11-29T14:36:57Z</time>
      </trkpt>
      <trkpt lat="42.16514" lon="-1.43796">
        <ele>313.7</ele>
        <time>2014-11-29T14:36:57Z</time>
      </trkpt>
      <trkpt lat="42.16533" lon="-1.43847">
        <ele>312.6</ele>
        <time>2014-11-29T14:36:57Z</time>
      </trkpt>
      <trkpt lat="42.1655" lon="-1.43877">
        <ele>310.9</ele>
        <time>2014-11-29T14:36:57Z</time>
      </trkpt>
      <trkpt lat="42.16568" lon="-1.439">
        <ele>309.3</ele>
        <time>2014-11-29T14:36:57Z</time>
      </trkpt>
      <trkpt lat="42.16595" lon="-1.4393">
        <ele>308.2</ele>
        <time>2014-11-29T14:36:57Z</time>
      </trkpt>
      <trkpt lat="42.16623" lon="-1.43958">
        <ele>308.3</ele>
        <time>2014-11-29T14:36:57Z</time>
      </trkpt>
      <trkpt lat="42.16648" lon="-1.43984">
        <ele>308.2</ele>
        <time>2014-11-29T14:36:57Z</time>
      </trkpt>
      <trkpt lat="42.16673" lon="-1.44011">
        <ele>307.9</ele>
        <time>2014-11-29T14:36:57Z</time>
      </trkpt>
      <trkpt lat="42.16696" lon="-1.44031">
        <ele>307.2</ele>
        <time>2014-11-29T14:36:57Z</time>
      </trkpt>
      <trkpt lat="42.16713" lon="-1.4405">
        <ele>306.6</ele>
        <time>2014-11-29T14:36:57Z</time>
      </trkpt>
      <trkpt lat="42.16722" lon="-1.44061">
        <ele>306.3</ele>
        <time>2014-11-29T14:36:57Z</time>
      </trkpt>
      <trkpt lat="42.16731" lon="-1.44077">
        <ele>305.9</ele>
        <time>2014-11-29T14:36:57Z</time>
      </trkpt>
      <trkpt lat="42.16752" lon="-1.44112">
        <ele>305.3</ele>
        <time>2014-11-29T14:36:57Z</time>
      </trkpt>
      <trkpt lat="42.16775" lon="-1.44153">
        <ele>304.8</ele>
        <time>2014-11-29T14:36:57Z</time>
      </trkpt>
      <trkpt lat="42.16803" lon="-1.44194">
        <ele>303.4</ele>
        <time>2014-11-29T14:36:57Z</time>
      </trkpt>
      <trkpt lat="42.16815" lon="-1.44211">
        <ele>303.1</ele>
        <time>2014-11-29T14:36:57Z</time>
      </trkpt>
      <trkpt lat="42.16831" lon="-1.44226">
        <ele>302.8</ele>
        <time>2014-11-29T14:36:57Z</time>
      </trkpt>
      <trkpt lat="42.16853" lon="-1.44244">
        <ele>302.9</ele>
        <time>2014-11-29T14:36:57Z</time>
      </trkpt>
      <trkpt lat="42.16883" lon="-1.44272">
        <ele>302.9</ele>
        <time>2014-11-29T14:36:57Z</time>
      </trkpt>
      <trkpt lat="42.16902" lon="-1.4429">
        <ele>302.7</ele>
        <time>2014-11-29T14:36:57Z</time>
      </trkpt>
      <trkpt lat="42.16917" lon="-1.44307">
        <ele>302.3</ele>
        <time>2014-11-29T14:36:57Z</time>
      </trkpt>
      <trkpt lat="42.16937" lon="-1.44334">
        <ele>301.8</ele>
        <time>2014-11-29T14:36:57Z</time>
      </trkpt>
      <trkpt lat="42.16956" lon="-1.44365">
        <ele>301.4</ele>
        <time>2014-11-29T14:36:57Z</time>
      </trkpt>
      <trkpt lat="42.16967" lon="-1.44383">
        <ele>301</ele>
        <time>2014-11-29T14:36:57Z</time>
      </trkpt>
      <trkpt lat="42.16995" lon="-1.44429">
        <ele>300.4</ele>
        <time>2014-11-29T14:36:57Z</time>
      </trkpt>
      <trkpt lat="42.17023" lon="-1.44477">
        <ele>300.4</ele>
        <time>2014-11-29T14:36:57Z</time>
      </trkpt>
      <trkpt lat="42.17051" lon="-1.44522">
        <ele>300</ele>
        <time>2014-11-29T14:36:57Z</time>
      </trkpt>
      <trkpt lat="42.1707" lon="-1.44549">
        <ele>299.4</ele>
        <time>2014-11-29T14:36:57Z</time>
      </trkpt>
      <trkpt lat="42.17086" lon="-1.44568">
        <ele>298.8</ele>
        <time>2014-11-29T14:36:57Z</time>
      </trkpt>
      <trkpt lat="42.17117" lon="-1.44596">
        <ele>298.6</ele>
        <time>2014-11-29T14:36:57Z</time>
      </trkpt>
      <trkpt lat="42.17159" lon="-1.4464">
        <ele>297.5</ele>
        <time>2014-11-29T14:36:57Z</time>
      </trkpt>
      <trkpt lat="42.17184" lon="-1.44665">
        <ele>296.8</ele>
        <time>2014-11-29T14:36:57Z</time>
      </trkpt>
      <trkpt lat="42.17203" lon="-1.44682">
        <ele>296.6</ele>
        <time>2014-11-29T14:36:57Z</time>
      </trkpt>
      <trkpt lat="42.17226" lon="-1.44702">
        <ele>296.3</ele>
        <time>2014-11-29T14:36:57Z</time>
      </trkpt>
      <trkpt lat="42.1724" lon="-1.44719">
        <ele>296.1</ele>
        <time>2014-11-29T14:36:57Z</time>
      </trkpt>
      <trkpt lat="42.17249" lon="-1.44729">
        <ele>296</ele>
        <time>2014-11-29T14:36:57Z</time>
      </trkpt>
      <trkpt lat="42.17257" lon="-1.44743">
        <ele>296.2</ele>
        <time>2014-11-29T14:36:57Z</time>
      </trkpt>
      <trkpt lat="42.17268" lon="-1.44767">
        <ele>296.5</ele>
        <time>2014-11-29T14:36:57Z</time>
      </trkpt>
      <trkpt lat="42.17275" lon="-1.44791">
        <ele>296.8</ele>
        <time>2014-11-29T14:36:57Z</time>
      </trkpt>
      <trkpt lat="42.17283" lon="-1.44812">
        <ele>297.1</ele>
        <time>2014-11-29T14:36:57Z</time>
      </trkpt>
      <trkpt lat="42.17288" lon="-1.4483">
        <ele>297.4</ele>
        <time>2014-11-29T14:36:57Z</time>
      </trkpt>
      <trkpt lat="42.17297" lon="-1.44853">
        <ele>297.5</ele>
        <time>2014-11-29T14:36:57Z</time>
      </trkpt>
      <trkpt lat="42.17307" lon="-1.44868">
        <ele>297.6</ele>
        <time>2014-11-29T14:36:57Z</time>
      </trkpt>
      <trkpt lat="42.17324" lon="-1.44886">
        <ele>298</ele>
        <time>2014-11-29T14:36:57Z</time>
      </trkpt>
      <trkpt lat="42.17343" lon="-1.44903">
        <ele>297.8</ele>
        <time>2014-11-29T14:36:57Z</time>
      </trkpt>
      <trkpt lat="42.17366" lon="-1.44928">
        <ele>296.6</ele>
        <time>2014-11-29T14:36:57Z</time>
      </trkpt>
      <trkpt lat="42.17387" lon="-1.44951">
        <ele>295.5</ele>
        <time>2014-11-29T14:36:57Z</time>
      </trkpt>
      <trkpt lat="42.17401" lon="-1.44967">
        <ele>294.8</ele>
        <time>2014-11-29T14:36:57Z</time>
      </trkpt>
      <trkpt lat="42.17418" lon="-1.44993">
        <ele>294.1</ele>
        <time>2014-11-29T14:36:57Z</time>
      </trkpt>
      <trkpt lat="42.17438" lon="-1.45016">
        <ele>293.8</ele>
        <time>2014-11-29T14:36:57Z</time>
      </trkpt>
      <trkpt lat="42.17455" lon="-1.45035">
        <ele>293.6</ele>
        <time>2014-11-29T14:36:57Z</time>
      </trkpt>
      <trkpt lat="42.1747" lon="-1.45058">
        <ele>293.2</ele>
        <time>2014-11-29T14:36:57Z</time>
      </trkpt>
      <trkpt lat="42.17488" lon="-1.45085">
        <ele>292.4</ele>
        <time>2014-11-29T14:36:57Z</time>
      </trkpt>
      <trkpt lat="42.17505" lon="-1.45116">
        <ele>292.1</ele>
        <time>2014-11-29T14:36:57Z</time>
      </trkpt>
      <trkpt lat="42.17522" lon="-1.45145">
        <ele>292.3</ele>
        <time>2014-11-29T14:36:57Z</time>
      </trkpt>
      <trkpt lat="42.17541" lon="-1.45178">
        <ele>292.4</ele>
        <time>2014-11-29T14:36:57Z</time>
      </trkpt>
      <trkpt lat="42.1756" lon="-1.45207">
        <ele>292.6</ele>
        <time>2014-11-29T14:36:57Z</time>
      </trkpt>
      <trkpt lat="42.17568" lon="-1.4522">
        <ele>292.7</ele>
        <time>2014-11-29T14:36:57Z</time>
      </trkpt>
      <trkpt lat="42.17591" lon="-1.45248">
        <ele>293.2</ele>
        <time>2014-11-29T14:36:57Z</time>
      </trkpt>
      <trkpt lat="42.17609" lon="-1.45268">
        <ele>294</ele>
        <time>2014-11-29T14:36:57Z</time>
      </trkpt>
      <trkpt lat="42.17629" lon="-1.45283">
        <ele>294.7</ele>
        <time>2014-11-29T14:36:57Z</time>
      </trkpt>
      <trkpt lat="42.1765" lon="-1.45301">
        <ele>295.4</ele>
        <time>2014-11-29T14:36:57Z</time>
      </trkpt>
      <trkpt lat="42.17667" lon="-1.45316">
        <ele>295.8</ele>
        <time>2014-11-29T14:36:57Z</time>
      </trkpt>
      <trkpt lat="42.17684" lon="-1.45333">
        <ele>296.6</ele>
        <time>2014-11-29T14:36:57Z</time>
      </trkpt>
      <trkpt lat="42.17691" lon="-1.45342">
        <ele>296.7</ele>
        <time>2014-11-29T14:36:57Z</time>
      </trkpt>
      <trkpt lat="42.17709" lon="-1.45358">
        <ele>297.2</ele>
        <time>2014-11-29T14:36:57Z</time>
      </trkpt>
      <trkpt lat="42.17726" lon="-1.45376">
        <ele>297.8</ele>
        <time>2014-11-29T14:36:57Z</time>
      </trkpt>
      <trkpt lat="42.17744" lon="-1.45396">
        <ele>298.7</ele>
        <time>2014-11-29T14:36:57Z</time>
      </trkpt>
      <trkpt lat="42.17766" lon="-1.45419">
        <ele>299.3</ele>
        <time>2014-11-29T14:36:57Z</time>
      </trkpt>
      <trkpt lat="42.17782" lon="-1.45435">
        <ele>299.4</ele>
        <time>2014-11-29T14:36:57Z</time>
      </trkpt>
      <trkpt lat="42.17802" lon="-1.45457">
        <ele>299.5</ele>
        <time>2014-11-29T14:36:57Z</time>
      </trkpt>
      <trkpt lat="42.17819" lon="-1.45475">
        <ele>299.4</ele>
        <time>2014-11-29T14:36:57Z</time>
      </trkpt>
      <trkpt lat="42.17836" lon="-1.45493">
        <ele>299.2</ele>
        <time>2014-11-29T14:36:57Z</time>
      </trkpt>
      <trkpt lat="42.17851" lon="-1.4551">
        <ele>299.7</ele>
        <time>2014-11-29T14:36:57Z</time>
      </trkpt>
      <trkpt lat="42.17869" lon="-1.4553">
        <ele>300.4</ele>
        <time>2014-11-29T14:36:57Z</time>
      </trkpt>
      <trkpt lat="42.17882" lon="-1.45543">
        <ele>300.9</ele>
        <time>2014-11-29T14:36:57Z</time>
      </trkpt>
      <trkpt lat="42.17894" lon="-1.45555">
        <ele>301.3</ele>
        <time>2014-11-29T14:36:57Z</time>
      </trkpt>
      <trkpt lat="42.17908" lon="-1.4557">
        <ele>301.7</ele>
        <time>2014-11-29T14:36:57Z</time>
      </trkpt>
      <trkpt lat="42.17922" lon="-1.45584">
        <ele>302</ele>
        <time>2014-11-29T14:36:57Z</time>
      </trkpt>
      <trkpt lat="42.17936" lon="-1.45601">
        <ele>301.8</ele>
        <time>2014-11-29T14:36:57Z</time>
      </trkpt>
      <trkpt lat="42.17952" lon="-1.45619">
        <ele>301.8</ele>
        <time>2014-11-29T14:36:57Z</time>
      </trkpt>
      <trkpt lat="42.17962" lon="-1.45632">
        <ele>301.7</ele>
        <time>2014-11-29T14:36:57Z</time>
      </trkpt>
      <trkpt lat="42.17977" lon="-1.4565">
        <ele>301.8</ele>
        <time>2014-11-29T14:36:57Z</time>
      </trkpt>
      <trkpt lat="42.17989" lon="-1.45665">
        <ele>301.9</ele>
        <time>2014-11-29T14:36:57Z</time>
      </trkpt>
      <trkpt lat="42.18008" lon="-1.45687">
        <ele>301.4</ele>
        <time>2014-11-29T14:36:57Z</time>
      </trkpt>
      <trkpt lat="42.18016" lon="-1.45698">
        <ele>301.1</ele>
        <time>2014-11-29T14:36:57Z</time>
      </trkpt>
      <trkpt lat="42.18057" lon="-1.4575">
        <ele>300</ele>
        <time>2014-11-29T14:36:57Z</time>
      </trkpt>
      <trkpt lat="42.18093" lon="-1.45795">
        <ele>298.4</ele>
        <time>2014-11-29T14:36:57Z</time>
      </trkpt>
      <trkpt lat="42.18141" lon="-1.45853">
        <ele>297.5</ele>
        <time>2014-11-29T14:36:57Z</time>
      </trkpt>
      <trkpt lat="42.18154" lon="-1.45874">
        <ele>297.4</ele>
        <time>2014-11-29T14:36:57Z</time>
      </trkpt>
      <trkpt lat="42.18172" lon="-1.45908">
        <ele>297</ele>
        <time>2014-11-29T14:36:57Z</time>
      </trkpt>
      <trkpt lat="42.18184" lon="-1.45962">
        <ele>297.2</ele>
        <time>2014-11-29T14:36:57Z</time>
      </trkpt>
      <trkpt lat="42.18186" lon="-1.46002">
        <ele>297.8</ele>
        <time>2014-11-29T14:36:57Z</time>
      </trkpt>
      <trkpt lat="42.18186" lon="-1.46061">
        <ele>297.4</ele>
        <time>2014-11-29T14:36:57Z</time>
      </trkpt>
      <trkpt lat="42.18182" lon="-1.46112">
        <ele>296.7</ele>
        <time>2014-11-29T14:36:57Z</time>
      </trkpt>
      <trkpt lat="42.18171" lon="-1.46179">
        <ele>295.5</ele>
        <time>2014-11-29T14:36:57Z</time>
      </trkpt>
      <trkpt lat="42.1816" lon="-1.46236">
        <ele>294.6</ele>
        <time>2014-11-29T14:36:57Z</time>
      </trkpt>
      <trkpt lat="42.18151" lon="-1.46287">
        <ele>294.5</ele>
        <time>2014-11-29T14:36:57Z</time>
      </trkpt>
      <trkpt lat="42.18144" lon="-1.46323">
        <ele>294.6</ele>
        <time>2014-11-29T14:36:57Z</time>
      </trkpt>
      <trkpt lat="42.18137" lon="-1.46369">
        <ele>294.4</ele>
        <time>2014-11-29T14:36:57Z</time>
      </trkpt>
      <trkpt lat="42.18138" lon="-1.46402">
        <ele>294.1</ele>
        <time>2014-11-29T14:36:57Z</time>
      </trkpt>
      <trkpt lat="42.18149" lon="-1.46464">
        <ele>294.5</ele>
        <time>2014-11-29T14:36:57Z</time>
      </trkpt>
      <trkpt lat="42.18164" lon="-1.46535">
        <ele>295.4</ele>
        <time>2014-11-29T14:36:57Z</time>
      </trkpt>
      <trkpt lat="42.18175" lon="-1.46594">
        <ele>295.6</ele>
        <time>2014-11-29T14:36:57Z</time>
      </trkpt>
      <trkpt lat="42.18183" lon="-1.46641">
        <ele>294.8</ele>
        <time>2014-11-29T14:36:57Z</time>
      </trkpt>
      <trkpt lat="42.18188" lon="-1.46676">
        <ele>294.2</ele>
        <time>2014-11-29T14:36:57Z</time>
      </trkpt>
      <trkpt lat="42.18191" lon="-1.46708">
        <ele>293.2</ele>
        <time>2014-11-29T14:36:57Z</time>
      </trkpt>
      <trkpt lat="42.18198" lon="-1.46782">
        <ele>291.4</ele>
        <time>2014-11-29T14:36:57Z</time>
      </trkpt>
      <trkpt lat="42.18205" lon="-1.46849">
        <ele>290.3</ele>
        <time>2014-11-29T14:36:57Z</time>
      </trkpt>
      <trkpt lat="42.18216" lon="-1.46929">
        <ele>289.2</ele>
        <time>2014-11-29T14:36:57Z</time>
      </trkpt>
      <trkpt lat="42.18224" lon="-1.4699">
        <ele>288.2</ele>
        <time>2014-11-29T14:36:57Z</time>
      </trkpt>
      <trkpt lat="42.18228" lon="-1.47026">
        <ele>288.3</ele>
        <time>2014-11-29T14:36:57Z</time>
      </trkpt>
      <trkpt lat="42.18231" lon="-1.47075">
        <ele>288.9</ele>
        <time>2014-11-29T14:36:57Z</time>
      </trkpt>
      <trkpt lat="42.18235" lon="-1.47132">
        <ele>288.8</ele>
        <time>2014-11-29T14:36:57Z</time>
      </trkpt>
      <trkpt lat="42.1824" lon="-1.4718">
        <ele>288.8</ele>
        <time>2014-11-29T14:36:57Z</time>
      </trkpt>
      <trkpt lat="42.18243" lon="-1.47216">
        <ele>288.9</ele>
        <time>2014-11-29T14:36:57Z</time>
      </trkpt>
      <trkpt lat="42.18247" lon="-1.47253">
        <ele>288.8</ele>
        <time>2014-11-29T14:36:57Z</time>
      </trkpt>
      <trkpt lat="42.18251" lon="-1.47284">
        <ele>287.7</ele>
        <time>2014-11-29T14:36:57Z</time>
      </trkpt>
      <trkpt lat="42.18257" lon="-1.47318">
        <ele>286.4</ele>
        <time>2014-11-29T14:36:57Z</time>
      </trkpt>
      <trkpt lat="42.1826" lon="-1.47346">
        <ele>285.4</ele>
        <time>2014-11-29T14:36:57Z</time>
      </trkpt>
      <trkpt lat="42.1826" lon="-1.47346">
        <ele>285.4</ele>
        <time>2014-11-29T14:36:57Z</time>
      </trkpt>
      <trkpt lat="42.18263" lon="-1.47396">
        <ele>283.8</ele>
        <time>2014-11-29T14:36:57Z</time>
      </trkpt>
      <trkpt lat="42.18268" lon="-1.47432">
        <ele>283</ele>
        <time>2014-11-29T14:36:57Z</time>
      </trkpt>
      <trkpt lat="42.18272" lon="-1.47452">
        <ele>282.7</ele>
        <time>2014-11-29T14:36:57Z</time>
      </trkpt>
      <trkpt lat="42.1828" lon="-1.47473">
        <ele>282.4</ele>
        <time>2014-11-29T14:36:57Z</time>
      </trkpt>
      <trkpt lat="42.18287" lon="-1.47493">
        <ele>282.1</ele>
        <time>2014-11-29T14:36:57Z</time>
      </trkpt>
      <trkpt lat="42.183" lon="-1.47536">
        <ele>282.9</ele>
        <time>2014-11-29T14:36:57Z</time>
      </trkpt>
      <trkpt lat="42.18305" lon="-1.47577">
        <ele>283.9</ele>
        <time>2014-11-29T14:36:57Z</time>
      </trkpt>
      <trkpt lat="42.18306" lon="-1.47596">
        <ele>284.2</ele>
        <time>2014-11-29T14:36:57Z</time>
      </trkpt>
      <trkpt lat="42.18304" lon="-1.47619">
        <ele>284.6</ele>
        <time>2014-11-29T14:36:57Z</time>
      </trkpt>
      <trkpt lat="42.18301" lon="-1.47646">
        <ele>285.1</ele>
        <time>2014-11-29T14:36:57Z</time>
      </trkpt>
      <trkpt lat="42.18297" lon="-1.47685">
        <ele>286.6</ele>
        <time>2014-11-29T14:36:57Z</time>
      </trkpt>
      <trkpt lat="42.18295" lon="-1.47714">
        <ele>288.4</ele>
        <time>2014-11-29T14:36:57Z</time>
      </trkpt>
      <trkpt lat="42.18289" lon="-1.47771">
        <ele>291.4</ele>
        <time>2014-11-29T14:36:57Z</time>
      </trkpt>
      <trkpt lat="42.18286" lon="-1.47793">
        <ele>292.3</ele>
        <time>2014-11-29T14:36:57Z</time>
      </trkpt>
      <trkpt lat="42.18285" lon="-1.47814">
        <ele>293.2</ele>
        <time>2014-11-29T14:36:57Z</time>
      </trkpt>
      <trkpt lat="42.18289" lon="-1.47841">
        <ele>294.1</ele>
        <time>2014-11-29T14:36:57Z</time>
      </trkpt>
      <trkpt lat="42.18297" lon="-1.47866">
        <ele>294.4</ele>
        <time>2014-11-29T14:36:57Z</time>
      </trkpt>
      <trkpt lat="42.18315" lon="-1.47904">
        <ele>295.3</ele>
        <time>2014-11-29T14:36:57Z</time>
      </trkpt>
      <trkpt lat="42.18338" lon="-1.47937">
        <ele>297.2</ele>
        <time>2014-11-29T14:36:57Z</time>
      </trkpt>
      <trkpt lat="42.18366" lon="-1.47976">
        <ele>303.1</ele>
        <time>2014-11-29T14:36:57Z</time>
      </trkpt>
      <trkpt lat="42.18377" lon="-1.47996">
        <ele>306.4</ele>
        <time>2014-11-29T14:36:57Z</time>
      </trkpt>
      <trkpt lat="42.18385" lon="-1.48022">
        <ele>308.6</ele>
        <time>2014-11-29T14:36:57Z</time>
      </trkpt>
      <trkpt lat="42.18392" lon="-1.4806">
        <ele>310.2</ele>
        <time>2014-11-29T14:36:57Z</time>
      </trkpt>
      <trkpt lat="42.18396" lon="-1.48087">
        <ele>311.2</ele>
        <time>2014-11-29T14:36:57Z</time>
      </trkpt>
      <trkpt lat="42.18402" lon="-1.48117">
        <ele>311.8</ele>
        <time>2014-11-29T14:36:57Z</time>
      </trkpt>
      <trkpt lat="42.18412" lon="-1.48139">
        <ele>312.9</ele>
        <time>2014-11-29T14:36:57Z</time>
      </trkpt>
      <trkpt lat="42.18433" lon="-1.48174">
        <ele>313.2</ele>
        <time>2014-11-29T14:36:57Z</time>
      </trkpt>
      <trkpt lat="42.18457" lon="-1.4821">
        <ele>310.6</ele>
        <time>2014-11-29T14:36:57Z</time>
      </trkpt>
      <trkpt lat="42.18488" lon="-1.48255">
        <ele>307.2</ele>
        <time>2014-11-29T14:36:57Z</time>
      </trkpt>
      <trkpt lat="42.18524" lon="-1.48308">
        <ele>304.2</ele>
        <time>2014-11-29T14:36:57Z</time>
      </trkpt>
      <trkpt lat="42.18542" lon="-1.48341">
        <ele>302.5</ele>
        <time>2014-11-29T14:36:57Z</time>
      </trkpt>
      <trkpt lat="42.18557" lon="-1.48375">
        <ele>300.5</ele>
        <time>2014-11-29T14:36:57Z</time>
      </trkpt>
      <trkpt lat="42.18568" lon="-1.48402">
        <ele>298.8</ele>
        <time>2014-11-29T14:36:57Z</time>
      </trkpt>
      <trkpt lat="42.18578" lon="-1.48416">
        <ele>297.9</ele>
        <time>2014-11-29T14:36:57Z</time>
      </trkpt>
      <trkpt lat="42.18594" lon="-1.48427">
        <ele>298</ele>
        <time>2014-11-29T14:36:57Z</time>
      </trkpt>
      <trkpt lat="42.18616" lon="-1.48437">
        <ele>298.3</ele>
        <time>2014-11-29T14:36:57Z</time>
      </trkpt>
      <trkpt lat="42.18639" lon="-1.48439">
        <ele>298.8</ele>
        <time>2014-11-29T14:36:57Z</time>
      </trkpt>
      <trkpt lat="42.18664" lon="-1.4844">
        <ele>299.4</ele>
        <time>2014-11-29T14:36:57Z</time>
      </trkpt>
      <trkpt lat="42.18664" lon="-1.48441">
        <ele>299.4</ele>
        <time>2014-11-29T14:48:06Z</time>
      </trkpt>
      <trkpt lat="42.18691" lon="-1.48428">
        <ele>300</ele>
        <time>2014-11-29T14:48:06Z</time>
      </trkpt>
      <trkpt lat="42.18708" lon="-1.48424">
        <ele>300.4</ele>
        <time>2014-11-29T14:48:06Z</time>
      </trkpt>
      <trkpt lat="42.18723" lon="-1.48424">
        <ele>300.6</ele>
        <time>2014-11-29T14:48:06Z</time>
      </trkpt>
      <trkpt lat="42.18733" lon="-1.48431">
        <ele>300.6</ele>
        <time>2014-11-29T14:48:06Z</time>
      </trkpt>
      <trkpt lat="42.18753" lon="-1.48446">
        <ele>300.9</ele>
        <time>2014-11-29T14:48:06Z</time>
      </trkpt>
      <trkpt lat="42.18775" lon="-1.48464">
        <ele>302.3</ele>
        <time>2014-11-29T14:48:06Z</time>
      </trkpt>
      <trkpt lat="42.18798" lon="-1.48483">
        <ele>303.4</ele>
        <time>2014-11-29T14:48:06Z</time>
      </trkpt>
      <trkpt lat="42.18823" lon="-1.48504">
        <ele>304.2</ele>
        <time>2014-11-29T14:48:06Z</time>
      </trkpt>
      <trkpt lat="42.18852" lon="-1.48529">
        <ele>303.9</ele>
        <time>2014-11-29T14:48:06Z</time>
      </trkpt>
      <trkpt lat="42.18878" lon="-1.48552">
        <ele>303.4</ele>
        <time>2014-11-29T14:48:06Z</time>
      </trkpt>
      <trkpt lat="42.18903" lon="-1.48572">
        <ele>303.1</ele>
        <time>2014-11-29T14:48:06Z</time>
      </trkpt>
      <trkpt lat="42.1893" lon="-1.48596">
        <ele>302.7</ele>
        <time>2014-11-29T14:48:06Z</time>
      </trkpt>
      <trkpt lat="42.18956" lon="-1.48617">
        <ele>302.6</ele>
        <time>2014-11-29T14:48:06Z</time>
      </trkpt>
      <trkpt lat="42.18973" lon="-1.48631">
        <ele>302.6</ele>
        <time>2014-11-29T14:48:06Z</time>
      </trkpt>
      <trkpt lat="42.19002" lon="-1.48656">
        <ele>303.1</ele>
        <time>2014-11-29T14:48:06Z</time>
      </trkpt>
      <trkpt lat="42.19032" lon="-1.48682">
        <ele>305.7</ele>
        <time>2014-11-29T14:48:06Z</time>
      </trkpt>
      <trkpt lat="42.19062" lon="-1.48708">
        <ele>308.5</ele>
        <time>2014-11-29T14:48:06Z</time>
      </trkpt>
      <trkpt lat="42.19102" lon="-1.48743">
        <ele>313.5</ele>
        <time>2014-11-29T14:48:06Z</time>
      </trkpt>
      <trkpt lat="42.19107" lon="-1.48747">
        <ele>314.4</ele>
        <time>2014-11-29T14:48:06Z</time>
      </trkpt>
      <trkpt lat="42.19135" lon="-1.4877">
        <ele>316.3</ele>
        <time>2014-11-29T14:48:06Z</time>
      </trkpt>
      <trkpt lat="42.19154" lon="-1.48786">
        <ele>316.4</ele>
        <time>2014-11-29T14:48:06Z</time>
      </trkpt>
      <trkpt lat="42.1917" lon="-1.48799">
        <ele>315.8</ele>
        <time>2014-11-29T14:48:06Z</time>
      </trkpt>
      <trkpt lat="42.19192" lon="-1.48817">
        <ele>313.1</ele>
        <time>2014-11-29T14:48:06Z</time>
      </trkpt>
      <trkpt lat="42.19215" lon="-1.48837">
        <ele>310.7</ele>
        <time>2014-11-29T14:48:06Z</time>
      </trkpt>
      <trkpt lat="42.19239" lon="-1.48856">
        <ele>309.3</ele>
        <time>2014-11-29T14:48:06Z</time>
      </trkpt>
      <trkpt lat="42.19256" lon="-1.48871">
        <ele>308</ele>
        <time>2014-11-29T14:48:06Z</time>
      </trkpt>
      <trkpt lat="42.1927" lon="-1.48885">
        <ele>306.5</ele>
        <time>2014-11-29T14:48:06Z</time>
      </trkpt>
      <trkpt lat="42.19295" lon="-1.48908">
        <ele>304.3</ele>
        <time>2014-11-29T14:48:06Z</time>
      </trkpt>
      <trkpt lat="42.19309" lon="-1.48922">
        <ele>303.5</ele>
        <time>2014-11-29T14:48:06Z</time>
      </trkpt>
      <trkpt lat="42.19337" lon="-1.48953">
        <ele>302.6</ele>
        <time>2014-11-29T14:48:06Z</time>
      </trkpt>
      <trkpt lat="42.19358" lon="-1.48973">
        <ele>302.5</ele>
        <time>2014-11-29T14:48:06Z</time>
      </trkpt>
      <trkpt lat="42.19381" lon="-1.48997">
        <ele>302.6</ele>
        <time>2014-11-29T14:48:06Z</time>
      </trkpt>
      <trkpt lat="42.19402" lon="-1.49016">
        <ele>302.5</ele>
        <time>2014-11-29T14:48:06Z</time>
      </trkpt>
      <trkpt lat="42.19429" lon="-1.49043">
        <ele>301.8</ele>
        <time>2014-11-29T14:48:06Z</time>
      </trkpt>
      <trkpt lat="42.19449" lon="-1.4906">
        <ele>301.2</ele>
        <time>2014-11-29T14:48:06Z</time>
      </trkpt>
      <trkpt lat="42.19465" lon="-1.49078">
        <ele>301</ele>
        <time>2014-11-29T14:48:06Z</time>
      </trkpt>
      <trkpt lat="42.19486" lon="-1.49098">
        <ele>300.9</ele>
        <time>2014-11-29T14:48:06Z</time>
      </trkpt>
      <trkpt lat="42.19502" lon="-1.49115">
        <ele>300.9</ele>
        <time>2014-11-29T14:48:06Z</time>
      </trkpt>
      <trkpt lat="42.19523" lon="-1.49136">
        <ele>300.1</ele>
        <time>2014-11-29T14:48:06Z</time>
      </trkpt>
      <trkpt lat="42.19546" lon="-1.49159">
        <ele>298.9</ele>
        <time>2014-11-29T14:48:06Z</time>
      </trkpt>
      <trkpt lat="42.19565" lon="-1.49178">
        <ele>298</ele>
        <time>2014-11-29T14:48:06Z</time>
      </trkpt>
      <trkpt lat="42.19607" lon="-1.4922">
        <ele>298.5</ele>
        <time>2014-11-29T14:48:06Z</time>
      </trkpt>
      <trkpt lat="42.19632" lon="-1.49245">
        <ele>298.9</ele>
        <time>2014-11-29T14:48:06Z</time>
      </trkpt>
      <trkpt lat="42.19648" lon="-1.49261">
        <ele>298.8</ele>
        <time>2014-11-29T14:48:06Z</time>
      </trkpt>
      <trkpt lat="42.19666" lon="-1.49279">
        <ele>298.6</ele>
        <time>2014-11-29T14:48:06Z</time>
      </trkpt>
      <trkpt lat="42.1968" lon="-1.49295">
        <ele>298.2</ele>
        <time>2014-11-29T14:48:06Z</time>
      </trkpt>
      <trkpt lat="42.19705" lon="-1.49319">
        <ele>297.6</ele>
        <time>2014-11-29T14:48:06Z</time>
      </trkpt>
      <trkpt lat="42.19721" lon="-1.49335">
        <ele>297.3</ele>
        <time>2014-11-29T14:48:06Z</time>
      </trkpt>
      <trkpt lat="42.19746" lon="-1.49362">
        <ele>296.3</ele>
        <time>2014-11-29T14:48:06Z</time>
      </trkpt>
      <trkpt lat="42.19773" lon="-1.49389">
        <ele>295.8</ele>
        <time>2014-11-29T14:48:06Z</time>
      </trkpt>
      <trkpt lat="42.19787" lon="-1.49401">
        <ele>295.7</ele>
        <time>2014-11-29T14:48:06Z</time>
      </trkpt>
      <trkpt lat="42.19804" lon="-1.4942">
        <ele>295.7</ele>
        <time>2014-11-29T14:48:06Z</time>
      </trkpt>
      <trkpt lat="42.1983" lon="-1.49446">
        <ele>296</ele>
        <time>2014-11-29T14:48:06Z</time>
      </trkpt>
      <trkpt lat="42.19853" lon="-1.49468">
        <ele>296.7</ele>
        <time>2014-11-29T14:48:06Z</time>
      </trkpt>
      <trkpt lat="42.19883" lon="-1.49498">
        <ele>297.8</ele>
        <time>2014-11-29T14:48:06Z</time>
      </trkpt>
      <trkpt lat="42.19902" lon="-1.49519">
        <ele>298.4</ele>
        <time>2014-11-29T14:48:06Z</time>
      </trkpt>
      <trkpt lat="42.19912" lon="-1.49528">
        <ele>298.5</ele>
        <time>2014-11-29T14:48:06Z</time>
      </trkpt>
      <trkpt lat="42.19925" lon="-1.49542">
        <ele>298.8</ele>
        <time>2014-11-29T14:48:06Z</time>
      </trkpt>
      <trkpt lat="42.1994" lon="-1.49558">
        <ele>299.1</ele>
        <time>2014-11-29T14:48:06Z</time>
      </trkpt>
      <trkpt lat="42.19958" lon="-1.49576">
        <ele>299.6</ele>
        <time>2014-11-29T14:48:06Z</time>
      </trkpt>
      <trkpt lat="42.19979" lon="-1.49596">
        <ele>300.3</ele>
        <time>2014-11-29T14:48:06Z</time>
      </trkpt>
      <trkpt lat="42.19998" lon="-1.49617">
        <ele>300.9</ele>
        <time>2014-11-29T14:48:06Z</time>
      </trkpt>
      <trkpt lat="42.20025" lon="-1.49642">
        <ele>302.1</ele>
        <time>2014-11-29T14:48:06Z</time>
      </trkpt>
      <trkpt lat="42.20038" lon="-1.49656">
        <ele>302.8</ele>
        <time>2014-11-29T14:48:06Z</time>
      </trkpt>
      <trkpt lat="42.20047" lon="-1.49665">
        <ele>303.2</ele>
        <time>2014-11-29T14:48:06Z</time>
      </trkpt>
      <trkpt lat="42.20057" lon="-1.49676">
        <ele>303.6</ele>
        <time>2014-11-29T14:48:06Z</time>
      </trkpt>
      <trkpt lat="42.2007" lon="-1.49687">
        <ele>303.9</ele>
        <time>2014-11-29T14:48:06Z</time>
      </trkpt>
      <trkpt lat="42.20088" lon="-1.49706">
        <ele>304.1</ele>
        <time>2014-11-29T14:48:06Z</time>
      </trkpt>
      <trkpt lat="42.20104" lon="-1.49722">
        <ele>304.1</ele>
        <time>2014-11-29T14:48:06Z</time>
      </trkpt>
      <trkpt lat="42.20119" lon="-1.49737">
        <ele>304.1</ele>
        <time>2014-11-29T14:48:06Z</time>
      </trkpt>
      <trkpt lat="42.20146" lon="-1.49767">
        <ele>305.1</ele>
        <time>2014-11-29T14:48:06Z</time>
      </trkpt>
      <trkpt lat="42.20166" lon="-1.49785">
        <ele>306.3</ele>
        <time>2014-11-29T14:48:06Z</time>
      </trkpt>
      <trkpt lat="42.20184" lon="-1.49805">
        <ele>307.7</ele>
        <time>2014-11-29T14:48:06Z</time>
      </trkpt>
      <trkpt lat="42.20207" lon="-1.49827">
        <ele>309.7</ele>
        <time>2014-11-29T14:48:06Z</time>
      </trkpt>
      <trkpt lat="42.20238" lon="-1.49858">
        <ele>311.4</ele>
        <time>2014-11-29T14:48:06Z</time>
      </trkpt>
      <trkpt lat="42.20254" lon="-1.49875">
        <ele>312.1</ele>
        <time>2014-11-29T14:48:06Z</time>
      </trkpt>
      <trkpt lat="42.20287" lon="-1.49907">
        <ele>313.3</ele>
        <time>2014-11-29T14:48:06Z</time>
      </trkpt>
      <trkpt lat="42.20312" lon="-1.49933">
        <ele>314.1</ele>
        <time>2014-11-29T14:48:06Z</time>
      </trkpt>
      <trkpt lat="42.2034" lon="-1.4996">
        <ele>315.6</ele>
        <time>2014-11-29T14:48:06Z</time>
      </trkpt>
      <trkpt lat="42.20377" lon="-1.49996">
        <ele>319.7</ele>
        <time>2014-11-29T14:48:06Z</time>
      </trkpt>
      <trkpt lat="42.20403" lon="-1.50021">
        <ele>320.7</ele>
        <time>2014-11-29T14:48:06Z</time>
      </trkpt>
      <trkpt lat="42.20417" lon="-1.50036">
        <ele>320.5</ele>
        <time>2014-11-29T14:48:06Z</time>
      </trkpt>
      <trkpt lat="42.20434" lon="-1.50052">
        <ele>319.6</ele>
        <time>2014-11-29T14:48:06Z</time>
      </trkpt>
      <trkpt lat="42.20464" lon="-1.50082">
        <ele>316.2</ele>
        <time>2014-11-29T14:48:06Z</time>
      </trkpt>
      <trkpt lat="42.2048" lon="-1.50098">
        <ele>314.9</ele>
        <time>2014-11-29T14:48:06Z</time>
      </trkpt>
      <trkpt lat="42.20499" lon="-1.50117">
        <ele>313.2</ele>
        <time>2014-11-29T14:48:06Z</time>
      </trkpt>
      <trkpt lat="42.20517" lon="-1.50138">
        <ele>311.1</ele>
        <time>2014-11-29T14:48:06Z</time>
      </trkpt>
      <trkpt lat="42.20535" lon="-1.5017">
        <ele>307.9</ele>
        <time>2014-11-29T14:48:06Z</time>
      </trkpt>
      <trkpt lat="42.2055" lon="-1.502">
        <ele>305.9</ele>
        <time>2014-11-29T14:48:06Z</time>
      </trkpt>
      <trkpt lat="42.20568" lon="-1.50244">
        <ele>302.9</ele>
        <time>2014-11-29T14:48:06Z</time>
      </trkpt>
      <trkpt lat="42.20588" lon="-1.50282">
        <ele>301.2</ele>
        <time>2014-11-29T14:48:06Z</time>
      </trkpt>
      <trkpt lat="42.20619" lon="-1.5035">
        <ele>298.8</ele>
        <time>2014-11-29T14:48:06Z</time>
      </trkpt>
      <trkpt lat="42.20642" lon="-1.50396">
        <ele>297.9</ele>
        <time>2014-11-29T14:48:06Z</time>
      </trkpt>
      <trkpt lat="42.2067" lon="-1.5046">
        <ele>298.1</ele>
        <time>2014-11-29T14:48:06Z</time>
      </trkpt>
      <trkpt lat="42.20694" lon="-1.5051">
        <ele>298.7</ele>
        <time>2014-11-29T14:48:06Z</time>
      </trkpt>
      <trkpt lat="42.20709" lon="-1.50543">
        <ele>298.5</ele>
        <time>2014-11-29T14:48:06Z</time>
      </trkpt>
      <trkpt lat="42.20719" lon="-1.50565">
        <ele>298.3</ele>
        <time>2014-11-29T14:48:06Z</time>
      </trkpt>
      <trkpt lat="42.20724" lon="-1.50586">
        <ele>298.1</ele>
        <time>2014-11-29T14:48:06Z</time>
      </trkpt>
      <trkpt lat="42.2073" lon="-1.50611">
        <ele>298.5</ele>
        <time>2014-11-29T14:48:06Z</time>
      </trkpt>
      <trkpt lat="42.20732" lon="-1.50657">
        <ele>299.1</ele>
        <time>2014-11-29T14:48:06Z</time>
      </trkpt>
      <trkpt lat="42.20731" lon="-1.50713">
        <ele>301.4</ele>
        <time>2014-11-29T14:48:06Z</time>
      </trkpt>
      <trkpt lat="42.20726" lon="-1.50749">
        <ele>302.6</ele>
        <time>2014-11-29T14:48:06Z</time>
      </trkpt>
      <trkpt lat="42.20718" lon="-1.50785">
        <ele>307</ele>
        <time>2014-11-29T14:48:06Z</time>
      </trkpt>
      <trkpt lat="42.20706" lon="-1.50816">
        <ele>309.4</ele>
        <time>2014-11-29T14:48:06Z</time>
      </trkpt>
      <trkpt lat="42.20694" lon="-1.5085">
        <ele>310.3</ele>
        <time>2014-11-29T14:48:06Z</time>
      </trkpt>
      <trkpt lat="42.20691" lon="-1.50874">
        <ele>311.3</ele>
        <time>2014-11-29T14:48:06Z</time>
      </trkpt>
      <trkpt lat="42.20694" lon="-1.50906">
        <ele>314.7</ele>
        <time>2014-11-29T14:48:06Z</time>
      </trkpt>
      <trkpt lat="42.20703" lon="-1.50929">
        <ele>317</ele>
        <time>2014-11-29T14:48:06Z</time>
      </trkpt>
      <trkpt lat="42.20717" lon="-1.50957">
        <ele>317.5</ele>
        <time>2014-11-29T14:48:06Z</time>
      </trkpt>
      <trkpt lat="42.20741" lon="-1.51006">
        <ele>315.2</ele>
        <time>2014-11-29T14:48:06Z</time>
      </trkpt>
      <trkpt lat="42.20757" lon="-1.5104">
        <ele>311.3</ele>
        <time>2014-11-29T14:48:06Z</time>
      </trkpt>
      <trkpt lat="42.20772" lon="-1.51072">
        <ele>307.1</ele>
        <time>2014-11-29T14:48:06Z</time>
      </trkpt>
      <trkpt lat="42.20795" lon="-1.51124">
        <ele>305.9</ele>
        <time>2014-11-29T14:48:06Z</time>
      </trkpt>
      <trkpt lat="42.2081" lon="-1.51165">
        <ele>306.7</ele>
        <time>2014-11-29T14:48:06Z</time>
      </trkpt>
      <trkpt lat="42.20842" lon="-1.51244">
        <ele>306.9</ele>
        <time>2014-11-29T14:48:06Z</time>
      </trkpt>
      <trkpt lat="42.20853" lon="-1.51272">
        <ele>305.3</ele>
        <time>2014-11-29T14:48:06Z</time>
      </trkpt>
      <trkpt lat="42.20865" lon="-1.51299">
        <ele>303.4</ele>
        <time>2014-11-29T14:48:06Z</time>
      </trkpt>
      <trkpt lat="42.20889" lon="-1.51356">
        <ele>298.6</ele>
        <time>2014-11-29T14:48:06Z</time>
      </trkpt>
      <trkpt lat="42.20911" lon="-1.51408">
        <ele>295.5</ele>
        <time>2014-11-29T14:48:06Z</time>
      </trkpt>
      <trkpt lat="42.20939" lon="-1.51475">
        <ele>291.1</ele>
        <time>2014-11-29T14:48:06Z</time>
      </trkpt>
      <trkpt lat="42.20949" lon="-1.51557">
        <ele>287.8</ele>
        <time>2014-11-29T14:48:06Z</time>
      </trkpt>
      <trkpt lat="42.20951" lon="-1.51555">
        <ele>287.6</ele>
        <time>2014-11-29T11:35:42Z</time>
      </trkpt>
      <trkpt lat="42.20981" lon="-1.51499">
        <ele>286.6</ele>
        <time>2014-11-29T11:35:42Z</time>
      </trkpt>
      <trkpt lat="42.20997" lon="-1.51478">
        <ele>286.3</ele>
        <time>2014-11-29T11:35:42Z</time>
      </trkpt>
      <trkpt lat="42.21018" lon="-1.51441">
        <ele>286.8</ele>
        <time>2014-11-29T11:35:42Z</time>
      </trkpt>
      <trkpt lat="42.21038" lon="-1.51403">
        <ele>286.8</ele>
        <time>2014-11-29T11:35:42Z</time>
      </trkpt>
      <trkpt lat="42.2108" lon="-1.51328">
        <ele>288.3</ele>
        <time>2014-11-29T11:35:42Z</time>
      </trkpt>
      <trkpt lat="42.21099" lon="-1.51297">
        <ele>288.8</ele>
        <time>2014-11-29T11:35:42Z</time>
      </trkpt>
      <trkpt lat="42.21114" lon="-1.51281">
        <ele>289.2</ele>
        <time>2014-11-29T11:35:42Z</time>
      </trkpt>
      <trkpt lat="42.21133" lon="-1.51276">
        <ele>289</ele>
        <time>2014-11-29T11:35:42Z</time>
      </trkpt>
      <trkpt lat="42.21158" lon="-1.51275">
        <ele>288.8</ele>
        <time>2014-11-29T11:35:42Z</time>
      </trkpt>
      <trkpt lat="42.21183" lon="-1.51281">
        <ele>287.7</ele>
        <time>2014-11-29T11:35:42Z</time>
      </trkpt>
      <trkpt lat="42.21225" lon="-1.51297">
        <ele>286.1</ele>
        <time>2014-11-29T11:35:42Z</time>
      </trkpt>
      <trkpt lat="42.21289" lon="-1.5131">
        <ele>286.6</ele>
        <time>2014-11-29T11:35:42Z</time>
      </trkpt>
      <trkpt lat="42.21305" lon="-1.51308">
        <ele>287.1</ele>
        <time>2014-11-29T11:35:42Z</time>
      </trkpt>
      <trkpt lat="42.21325" lon="-1.51303">
        <ele>287.4</ele>
        <time>2014-11-29T11:35:42Z</time>
      </trkpt>
      <trkpt lat="42.21346" lon="-1.51288">
        <ele>287.3</ele>
        <time>2014-11-29T11:35:42Z</time>
      </trkpt>
      <trkpt lat="42.2136" lon="-1.51286">
        <ele>287.6</ele>
        <time>2014-11-29T11:35:42Z</time>
      </trkpt>
      <trkpt lat="42.21385" lon="-1.51281">
        <ele>288.3</ele>
        <time>2014-11-29T11:35:42Z</time>
      </trkpt>
      <trkpt lat="42.21404" lon="-1.51279">
        <ele>288.9</ele>
        <time>2014-11-29T11:35:42Z</time>
      </trkpt>
      <trkpt lat="42.2144" lon="-1.51278">
        <ele>289.4</ele>
        <time>2014-11-29T11:35:42Z</time>
      </trkpt>
      <trkpt lat="42.21454" lon="-1.5127">
        <ele>289.5</ele>
        <time>2014-11-29T11:35:42Z</time>
      </trkpt>
      <trkpt lat="42.21474" lon="-1.51256">
        <ele>289.7</ele>
        <time>2014-11-29T11:35:42Z</time>
      </trkpt>
      <trkpt lat="42.2154" lon="-1.51181">
        <ele>290</ele>
        <time>2014-11-29T11:35:42Z</time>
      </trkpt>
      <trkpt lat="42.21603" lon="-1.5111">
        <ele>289.4</ele>
        <time>2014-11-29T11:35:42Z</time>
      </trkpt>
      <trkpt lat="42.21703" lon="-1.50996">
        <ele>292.8</ele>
        <time>2014-11-29T11:35:42Z</time>
      </trkpt>
      <trkpt lat="42.21784" lon="-1.50905">
        <ele>289.6</ele>
        <time>2014-11-29T11:35:42Z</time>
      </trkpt>
      <trkpt lat="42.2188" lon="-1.50798">
        <ele>292.2</ele>
        <time>2014-11-29T11:35:42Z</time>
      </trkpt>
      <trkpt lat="42.2195" lon="-1.50715">
        <ele>292.1</ele>
        <time>2014-11-29T11:35:42Z</time>
      </trkpt>
      <trkpt lat="42.21966" lon="-1.50689">
        <ele>291.7</ele>
        <time>2014-11-29T11:35:42Z</time>
      </trkpt>
      <trkpt lat="42.22005" lon="-1.50613">
        <ele>291.1</ele>
        <time>2014-11-29T11:35:42Z</time>
      </trkpt>
      <trkpt lat="42.22032" lon="-1.50551">
        <ele>291.8</ele>
        <time>2014-11-29T11:35:42Z</time>
      </trkpt>
      <trkpt lat="42.22088" lon="-1.50433">
        <ele>292.2</ele>
        <time>2014-11-29T11:35:42Z</time>
      </trkpt>
      <trkpt lat="42.22129" lon="-1.50344">
        <ele>293.6</ele>
        <time>2014-11-29T11:35:42Z</time>
      </trkpt>
      <trkpt lat="42.22152" lon="-1.50297">
        <ele>295.6</ele>
        <time>2014-11-29T11:35:42Z</time>
      </trkpt>
      <trkpt lat="42.22168" lon="-1.50258">
        <ele>296.9</ele>
        <time>2014-11-29T11:35:42Z</time>
      </trkpt>
      <trkpt lat="42.22206" lon="-1.50154">
        <ele>297.4</ele>
        <time>2014-11-29T11:35:42Z</time>
      </trkpt>
      <trkpt lat="42.22233" lon="-1.50079">
        <ele>298.3</ele>
        <time>2014-11-29T11:35:42Z</time>
      </trkpt>
      <trkpt lat="42.22272" lon="-1.49969">
        <ele>296.6</ele>
        <time>2014-11-29T11:35:42Z</time>
      </trkpt>
      <trkpt lat="42.22329" lon="-1.49815">
        <ele>293.4</ele>
        <time>2014-11-29T11:35:42Z</time>
      </trkpt>
      <trkpt lat="42.22375" lon="-1.49685">
        <ele>297</ele>
        <time>2014-11-29T11:35:42Z</time>
      </trkpt>
      <trkpt lat="42.22426" lon="-1.49545">
        <ele>298.7</ele>
        <time>2014-11-29T11:35:42Z</time>
      </trkpt>
      <trkpt lat="42.22449" lon="-1.49481">
        <ele>299.6</ele>
        <time>2014-11-29T11:35:42Z</time>
      </trkpt>
      <trkpt lat="42.22481" lon="-1.49393">
        <ele>299.7</ele>
        <time>2014-11-29T11:35:42Z</time>
      </trkpt>
      <trkpt lat="42.2251" lon="-1.49337">
        <ele>301.1</ele>
        <time>2014-11-29T11:35:42Z</time>
      </trkpt>
      <trkpt lat="42.22526" lon="-1.49312">
        <ele>300.9</ele>
        <time>2014-11-29T11:35:42Z</time>
      </trkpt>
      <trkpt lat="42.22544" lon="-1.49283">
        <ele>300.3</ele>
        <time>2014-11-29T11:35:42Z</time>
      </trkpt>
      <trkpt lat="42.22556" lon="-1.49271">
        <ele>299.9</ele>
        <time>2014-11-29T11:35:42Z</time>
      </trkpt>
      <trkpt lat="42.22579" lon="-1.49261">
        <ele>299.5</ele>
        <time>2014-11-29T11:35:42Z</time>
      </trkpt>
      <trkpt lat="42.22614" lon="-1.49252">
        <ele>299.8</ele>
        <time>2014-11-29T11:35:42Z</time>
      </trkpt>
      <trkpt lat="42.22699" lon="-1.49237">
        <ele>301.3</ele>
        <time>2014-11-29T11:35:42Z</time>
      </trkpt>
      <trkpt lat="42.22772" lon="-1.49223">
        <ele>302.3</ele>
        <time>2014-11-29T11:35:42Z</time>
      </trkpt>
      <trkpt lat="42.22793" lon="-1.4922">
        <ele>302.5</ele>
        <time>2014-11-29T11:35:42Z</time>
      </trkpt>
      <trkpt lat="42.22807" lon="-1.49213">
        <ele>302.7</ele>
        <time>2014-11-29T11:35:42Z</time>
      </trkpt>
      <trkpt lat="42.22821" lon="-1.492">
        <ele>302.9</ele>
        <time>2014-11-29T11:35:42Z</time>
      </trkpt>
      <trkpt lat="42.22843" lon="-1.4916">
        <ele>303.2</ele>
        <time>2014-11-29T11:35:42Z</time>
      </trkpt>
      <trkpt lat="42.2288" lon="-1.49098">
        <ele>303.7</ele>
        <time>2014-11-29T11:35:42Z</time>
      </trkpt>
      <trkpt lat="42.22937" lon="-1.49002">
        <ele>305.7</ele>
        <time>2014-11-29T11:35:42Z</time>
      </trkpt>
      <trkpt lat="42.22973" lon="-1.48938">
        <ele>307.3</ele>
        <time>2014-11-29T11:35:42Z</time>
      </trkpt>
      <trkpt lat="42.22995" lon="-1.48886">
        <ele>308.3</ele>
        <time>2014-11-29T11:35:42Z</time>
      </trkpt>
      <trkpt lat="42.23008" lon="-1.48843">
        <ele>308.9</ele>
        <time>2014-11-29T11:35:42Z</time>
      </trkpt>
      <trkpt lat="42.23025" lon="-1.48775">
        <ele>309.7</ele>
        <time>2014-11-29T11:35:42Z</time>
      </trkpt>
      <trkpt lat="42.2303" lon="-1.4871">
        <ele>310.6</ele>
        <time>2014-11-29T11:35:42Z</time>
      </trkpt>
      <trkpt lat="42.23028" lon="-1.48661">
        <ele>311.5</ele>
        <time>2014-11-29T11:35:42Z</time>
      </trkpt>
      <trkpt lat="42.23024" lon="-1.48632">
        <ele>312.5</ele>
        <time>2014-11-29T11:35:42Z</time>
      </trkpt>
      <trkpt lat="42.23011" lon="-1.4859">
        <ele>314.4</ele>
        <time>2014-11-29T11:35:42Z</time>
      </trkpt>
      <trkpt lat="42.22977" lon="-1.48509">
        <ele>317</ele>
        <time>2014-11-29T11:35:42Z</time>
      </trkpt>
      <trkpt lat="42.22953" lon="-1.48475">
        <ele>316</ele>
        <time>2014-11-29T11:35:42Z</time>
      </trkpt>
      <trkpt lat="42.22922" lon="-1.48431">
        <ele>315</ele>
        <time>2014-11-29T11:35:42Z</time>
      </trkpt>
      <trkpt lat="42.22882" lon="-1.48372">
        <ele>312.8</ele>
        <time>2014-11-29T11:35:42Z</time>
      </trkpt>
      <trkpt lat="42.22803" lon="-1.4826">
        <ele>309.3</ele>
        <time>2014-11-29T11:35:42Z</time>
      </trkpt>
      <trkpt lat="42.22762" lon="-1.48198">
        <ele>307.8</ele>
        <time>2014-11-29T11:35:42Z</time>
      </trkpt>
      <trkpt lat="42.2273" lon="-1.48152">
        <ele>307.1</ele>
        <time>2014-11-29T11:35:42Z</time>
      </trkpt>
      <trkpt lat="42.2271" lon="-1.48121">
        <ele>306.4</ele>
        <time>2014-11-29T11:35:42Z</time>
      </trkpt>
      <trkpt lat="42.22701" lon="-1.48088">
        <ele>306.2</ele>
        <time>2014-11-29T11:35:42Z</time>
      </trkpt>
      <trkpt lat="42.22697" lon="-1.48063">
        <ele>306.7</ele>
        <time>2014-11-29T11:35:42Z</time>
      </trkpt>
      <trkpt lat="42.22686" lon="-1.48013">
        <ele>308</ele>
        <time>2014-11-29T11:35:42Z</time>
      </trkpt>
      <trkpt lat="42.22673" lon="-1.47941">
        <ele>308.9</ele>
        <time>2014-11-29T11:35:42Z</time>
      </trkpt>
      <trkpt lat="42.22658" lon="-1.47857">
        <ele>309.7</ele>
        <time>2014-11-29T11:35:42Z</time>
      </trkpt>
      <trkpt lat="42.22651" lon="-1.47801">
        <ele>309.8</ele>
        <time>2014-11-29T11:35:42Z</time>
      </trkpt>
      <trkpt lat="42.22652" lon="-1.47773">
        <ele>310</ele>
        <time>2014-11-29T11:35:42Z</time>
      </trkpt>
      <trkpt lat="42.22657" lon="-1.47728">
        <ele>309.7</ele>
        <time>2014-11-29T11:35:42Z</time>
      </trkpt>
      <trkpt lat="42.22661" lon="-1.47712">
        <ele>309.3</ele>
        <time>2014-11-29T11:35:42Z</time>
      </trkpt>
      <trkpt lat="42.22676" lon="-1.47639">
        <ele>307.7</ele>
        <time>2014-11-29T11:35:42Z</time>
      </trkpt>
      <trkpt lat="42.22678" lon="-1.47603">
        <ele>306.8</ele>
        <time>2014-11-29T11:35:42Z</time>
      </trkpt>
      <trkpt lat="42.22673" lon="-1.47553">
        <ele>306.8</ele>
        <time>2014-11-29T11:35:42Z</time>
      </trkpt>
      <trkpt lat="42.22667" lon="-1.47533">
        <ele>307.2</ele>
        <time>2014-11-29T11:35:42Z</time>
      </trkpt>
      <trkpt lat="42.22661" lon="-1.4752">
        <ele>307.3</ele>
        <time>2014-11-29T11:35:42Z</time>
      </trkpt>
      <trkpt lat="42.22638" lon="-1.47488">
        <ele>306.9</ele>
        <time>2014-11-29T11:35:42Z</time>
      </trkpt>
      <trkpt lat="42.22602" lon="-1.47441">
        <ele>306.1</ele>
        <time>2014-11-29T11:35:42Z</time>
      </trkpt>
      <trkpt lat="42.22577" lon="-1.47407">
        <ele>305.9</ele>
        <time>2014-11-29T11:35:42Z</time>
      </trkpt>
      <trkpt lat="42.22543" lon="-1.47361">
        <ele>306.1</ele>
        <time>2014-11-29T11:35:42Z</time>
      </trkpt>
      <trkpt lat="42.22506" lon="-1.47312">
        <ele>306.6</ele>
        <time>2014-11-29T11:35:42Z</time>
      </trkpt>
      <trkpt lat="42.22474" lon="-1.47269">
        <ele>307.1</ele>
        <time>2014-11-29T11:35:42Z</time>
      </trkpt>
      <trkpt lat="42.22457" lon="-1.47245">
        <ele>307.4</ele>
        <time>2014-11-29T11:35:42Z</time>
      </trkpt>
      <trkpt lat="42.22375" lon="-1.47133">
        <ele>304.8</ele>
        <time>2014-11-29T11:35:42Z</time>
      </trkpt>
      <trkpt lat="42.22287" lon="-1.47013">
        <ele>304.8</ele>
        <time>2014-11-29T11:35:42Z</time>
      </trkpt>
      <trkpt lat="42.2224" lon="-1.46953">
        <ele>305.1</ele>
        <time>2014-11-29T11:35:42Z</time>
      </trkpt>
      <trkpt lat="42.22171" lon="-1.46857">
        <ele>307.9</ele>
        <time>2014-11-29T11:35:42Z</time>
      </trkpt>
      <trkpt lat="42.22137" lon="-1.4681">
        <ele>307.8</ele>
        <time>2014-11-29T11:35:42Z</time>
      </trkpt>
      <trkpt lat="42.22127" lon="-1.46795">
        <ele>307.4</ele>
        <time>2014-11-29T11:35:42Z</time>
      </trkpt>
      <trkpt lat="42.22119" lon="-1.46779">
        <ele>306.9</ele>
        <time>2014-11-29T11:35:42Z</time>
      </trkpt>
      <trkpt lat="42.2211" lon="-1.46743">
        <ele>306.3</ele>
        <time>2014-11-29T11:35:42Z</time>
      </trkpt>
      <trkpt lat="42.2209" lon="-1.46681">
        <ele>306.1</ele>
        <time>2014-11-29T11:35:42Z</time>
      </trkpt>
      <trkpt lat="42.22065" lon="-1.46636">
        <ele>306.1</ele>
        <time>2014-11-29T11:35:42Z</time>
      </trkpt>
      <trkpt lat="42.22049" lon="-1.46607">
        <ele>305.8</ele>
        <time>2014-11-29T11:35:42Z</time>
      </trkpt>
      <trkpt lat="42.22033" lon="-1.46582">
        <ele>305.4</ele>
        <time>2014-11-29T11:35:42Z</time>
      </trkpt>
      <trkpt lat="42.2202" lon="-1.46568">
        <ele>305.1</ele>
        <time>2014-11-29T11:35:42Z</time>
      </trkpt>
      <trkpt lat="42.22003" lon="-1.46556">
        <ele>304.7</ele>
        <time>2014-11-29T11:35:42Z</time>
      </trkpt>
      <trkpt lat="42.21956" lon="-1.46521">
        <ele>303.9</ele>
        <time>2014-11-29T11:35:42Z</time>
      </trkpt>
      <trkpt lat="42.21913" lon="-1.46492">
        <ele>302.8</ele>
        <time>2014-11-29T11:35:42Z</time>
      </trkpt>
      <trkpt lat="42.21875" lon="-1.46465">
        <ele>300.7</ele>
        <time>2014-11-29T11:35:42Z</time>
      </trkpt>
      <trkpt lat="42.21845" lon="-1.46443">
        <ele>298.6</ele>
        <time>2014-11-29T11:35:42Z</time>
      </trkpt>
      <trkpt lat="42.21822" lon="-1.46417">
        <ele>297.3</ele>
        <time>2014-11-29T11:35:42Z</time>
      </trkpt>
      <trkpt lat="42.21808" lon="-1.46391">
        <ele>298.5</ele>
        <time>2014-11-29T11:35:42Z</time>
      </trkpt>
      <trkpt lat="42.21791" lon="-1.46356">
        <ele>300.2</ele>
        <time>2014-11-29T11:35:42Z</time>
      </trkpt>
      <trkpt lat="42.21791" lon="-1.46356">
        <ele>300.2</ele>
        <time>2014-11-29T12:00:08Z</time>
      </trkpt>
      <trkpt lat="42.21836" lon="-1.46297">
        <ele>300.9</ele>
        <time>2014-11-29T12:00:08Z</time>
      </trkpt>
      <trkpt lat="42.21858" lon="-1.46262">
        <ele>302</ele>
        <time>2014-11-29T12:00:08Z</time>
      </trkpt>
      <trkpt lat="42.21883" lon="-1.46224">
        <ele>303.1</ele>
        <time>2014-11-29T12:00:08Z</time>
      </trkpt>
      <trkpt lat="42.2191" lon="-1.46186">
        <ele>304.4</ele>
        <time>2014-11-29T12:00:08Z</time>
      </trkpt>
      <trkpt lat="42.21926" lon="-1.46173">
        <ele>304.8</ele>
        <time>2014-11-29T12:00:08Z</time>
      </trkpt>
      <trkpt lat="42.21959" lon="-1.46159">
        <ele>304.9</ele>
        <time>2014-11-29T12:00:08Z</time>
      </trkpt>
      <trkpt lat="42.2197" lon="-1.46156">
        <ele>304.8</ele>
        <time>2014-11-29T12:00:08Z</time>
      </trkpt>
      <trkpt lat="42.21979" lon="-1.46148">
        <ele>304.7</ele>
        <time>2014-11-29T12:00:08Z</time>
      </trkpt>
      <trkpt lat="42.21986" lon="-1.46137">
        <ele>304.4</ele>
        <time>2014-11-29T12:00:08Z</time>
      </trkpt>
      <trkpt lat="42.21995" lon="-1.4612">
        <ele>304</ele>
        <time>2014-11-29T12:00:08Z</time>
      </trkpt>
      <trkpt lat="42.21999" lon="-1.46104">
        <ele>303.5</ele>
        <time>2014-11-29T12:00:08Z</time>
      </trkpt>
      <trkpt lat="42.22013" lon="-1.46053">
        <ele>304.6</ele>
        <time>2014-11-29T12:00:08Z</time>
      </trkpt>
      <trkpt lat="42.2202" lon="-1.46026">
        <ele>305.7</ele>
        <time>2014-11-29T12:00:08Z</time>
      </trkpt>
      <trkpt lat="42.22023" lon="-1.46002">
        <ele>306.5</ele>
        <time>2014-11-29T12:00:08Z</time>
      </trkpt>
      <trkpt lat="42.22024" lon="-1.45957">
        <ele>308.2</ele>
        <time>2014-11-29T12:00:08Z</time>
      </trkpt>
      <trkpt lat="42.22028" lon="-1.45921">
        <ele>309.5</ele>
        <time>2014-11-29T12:00:08Z</time>
      </trkpt>
      <trkpt lat="42.22035" lon="-1.45884">
        <ele>310.5</ele>
        <time>2014-11-29T12:00:08Z</time>
      </trkpt>
      <trkpt lat="42.22038" lon="-1.45871">
        <ele>310.9</ele>
        <time>2014-11-29T12:00:08Z</time>
      </trkpt>
      <trkpt lat="42.22046" lon="-1.45854">
        <ele>311.4</ele>
        <time>2014-11-29T12:00:08Z</time>
      </trkpt>
      <trkpt lat="42.22061" lon="-1.45829">
        <ele>312</ele>
        <time>2014-11-29T12:00:08Z</time>
      </trkpt>
      <trkpt lat="42.22072" lon="-1.45818">
        <ele>312.2</ele>
        <time>2014-11-29T12:00:08Z</time>
      </trkpt>
      <trkpt lat="42.22087" lon="-1.45806">
        <ele>312.4</ele>
        <time>2014-11-29T12:00:08Z</time>
      </trkpt>
      <trkpt lat="42.22095" lon="-1.45798">
        <ele>312.7</ele>
        <time>2014-11-29T12:00:08Z</time>
      </trkpt>
      <trkpt lat="42.22105" lon="-1.45782">
        <ele>313.1</ele>
        <time>2014-11-29T12:00:08Z</time>
      </trkpt>
      <trkpt lat="42.22136" lon="-1.45753">
        <ele>314.2</ele>
        <time>2014-11-29T12:00:08Z</time>
      </trkpt>
      <trkpt lat="42.22149" lon="-1.45741">
        <ele>314.6</ele>
        <time>2014-11-29T12:00:08Z</time>
      </trkpt>
      <trkpt lat="42.22165" lon="-1.4573">
        <ele>315</ele>
        <time>2014-11-29T12:00:08Z</time>
      </trkpt>
      <trkpt lat="42.22184" lon="-1.45719">
        <ele>315.3</ele>
        <time>2014-11-29T12:00:08Z</time>
      </trkpt>
      <trkpt lat="42.22243" lon="-1.45691">
        <ele>316.2</ele>
        <time>2014-11-29T12:00:08Z</time>
      </trkpt>
      <trkpt lat="42.22294" lon="-1.45664">
        <ele>317.5</ele>
        <time>2014-11-29T12:00:08Z</time>
      </trkpt>
      <trkpt lat="42.22329" lon="-1.45645">
        <ele>318.4</ele>
        <time>2014-11-29T12:00:08Z</time>
      </trkpt>
      <trkpt lat="42.22354" lon="-1.45634">
        <ele>318.8</ele>
        <time>2014-11-29T12:00:08Z</time>
      </trkpt>
      <trkpt lat="42.22387" lon="-1.45621">
        <ele>319.6</ele>
        <time>2014-11-29T12:00:08Z</time>
      </trkpt>
      <trkpt lat="42.22401" lon="-1.45616">
        <ele>320.1</ele>
        <time>2014-11-29T12:00:08Z</time>
      </trkpt>
      <trkpt lat="42.22421" lon="-1.4561">
        <ele>320.8</ele>
        <time>2014-11-29T12:00:08Z</time>
      </trkpt>
      <trkpt lat="42.22473" lon="-1.45597">
        <ele>323.4</ele>
        <time>2014-11-29T12:00:08Z</time>
      </trkpt>
      <trkpt lat="42.22489" lon="-1.4559">
        <ele>324.3</ele>
        <time>2014-11-29T12:00:08Z</time>
      </trkpt>
      <trkpt lat="42.22512" lon="-1.4558">
        <ele>325.4</ele>
        <time>2014-11-29T12:00:08Z</time>
      </trkpt>
      <trkpt lat="42.22538" lon="-1.45569">
        <ele>326.4</ele>
        <time>2014-11-29T12:00:08Z</time>
      </trkpt>
      <trkpt lat="42.22553" lon="-1.45559">
        <ele>326.9</ele>
        <time>2014-11-29T12:00:08Z</time>
      </trkpt>
      <trkpt lat="42.22582" lon="-1.45556">
        <ele>327.9</ele>
        <time>2014-11-29T12:00:08Z</time>
      </trkpt>
      <trkpt lat="42.22625" lon="-1.45551">
        <ele>329.9</ele>
        <time>2014-11-29T12:00:08Z</time>
      </trkpt>
      <trkpt lat="42.22646" lon="-1.45549">
        <ele>330.9</ele>
        <time>2014-11-29T12:00:08Z</time>
      </trkpt>
      <trkpt lat="42.22663" lon="-1.45548">
        <ele>331.7</ele>
        <time>2014-11-29T12:00:08Z</time>
      </trkpt>
      <trkpt lat="42.2268" lon="-1.45549">
        <ele>331.9</ele>
        <time>2014-11-29T12:00:08Z</time>
      </trkpt>
      <trkpt lat="42.22702" lon="-1.45548">
        <ele>332.1</ele>
        <time>2014-11-29T12:00:08Z</time>
      </trkpt>
      <trkpt lat="42.2272" lon="-1.45545">
        <ele>332.3</ele>
        <time>2014-11-29T12:00:08Z</time>
      </trkpt>
      <trkpt lat="42.22743" lon="-1.45542">
        <ele>332.5</ele>
        <time>2014-11-29T12:00:08Z</time>
      </trkpt>
      <trkpt lat="42.2277" lon="-1.45539">
        <ele>334.5</ele>
        <time>2014-11-29T12:00:08Z</time>
      </trkpt>
      <trkpt lat="42.22784" lon="-1.45537">
        <ele>336</ele>
        <time>2014-11-29T12:00:08Z</time>
      </trkpt>
      <trkpt lat="42.22793" lon="-1.45535">
        <ele>336.8</ele>
        <time>2014-11-29T12:00:08Z</time>
      </trkpt>
      <trkpt lat="42.22806" lon="-1.45531">
        <ele>338.1</ele>
        <time>2014-11-29T12:00:08Z</time>
      </trkpt>
      <trkpt lat="42.22821" lon="-1.45521">
        <ele>339.3</ele>
        <time>2014-11-29T12:00:08Z</time>
      </trkpt>
      <trkpt lat="42.22836" lon="-1.45506">
        <ele>340.3</ele>
        <time>2014-11-29T12:00:08Z</time>
      </trkpt>
      <trkpt lat="42.2285" lon="-1.4549">
        <ele>341</ele>
        <time>2014-11-29T12:00:08Z</time>
      </trkpt>
      <trkpt lat="42.2287" lon="-1.45475">
        <ele>341.9</ele>
        <time>2014-11-29T12:00:08Z</time>
      </trkpt>
      <trkpt lat="42.22875" lon="-1.45472">
        <ele>342.2</ele>
        <time>2014-11-29T12:00:08Z</time>
      </trkpt>
      <trkpt lat="42.22883" lon="-1.45469">
        <ele>342.5</ele>
        <time>2014-11-29T12:00:08Z</time>
      </trkpt>
      <trkpt lat="42.22892" lon="-1.45466">
        <ele>342.9</ele>
        <time>2014-11-29T12:00:08Z</time>
      </trkpt>
      <trkpt lat="42.22905" lon="-1.45463">
        <ele>343.6</ele>
        <time>2014-11-29T12:00:08Z</time>
      </trkpt>
      <trkpt lat="42.22933" lon="-1.45454">
        <ele>344.3</ele>
        <time>2014-11-29T12:00:08Z</time>
      </trkpt>
      <trkpt lat="42.22956" lon="-1.45448">
        <ele>344.7</ele>
        <time>2014-11-29T12:00:08Z</time>
      </trkpt>
      <trkpt lat="42.22971" lon="-1.45443">
        <ele>345.2</ele>
        <time>2014-11-29T12:00:08Z</time>
      </trkpt>
      <trkpt lat="42.22984" lon="-1.45435">
        <ele>345.7</ele>
        <time>2014-11-29T12:00:08Z</time>
      </trkpt>
      <trkpt lat="42.22992" lon="-1.45425">
        <ele>346.3</ele>
        <time>2014-11-29T12:00:08Z</time>
      </trkpt>
      <trkpt lat="42.23" lon="-1.45407">
        <ele>347</ele>
        <time>2014-11-29T12:00:08Z</time>
      </trkpt>
      <trkpt lat="42.23006" lon="-1.45382">
        <ele>347.1</ele>
        <time>2014-11-29T12:00:08Z</time>
      </trkpt>
      <trkpt lat="42.23015" lon="-1.4536">
        <ele>347.2</ele>
        <time>2014-11-29T12:00:08Z</time>
      </trkpt>
      <trkpt lat="42.23024" lon="-1.45341">
        <ele>347.5</ele>
        <time>2014-11-29T12:00:08Z</time>
      </trkpt>
      <trkpt lat="42.23036" lon="-1.45322">
        <ele>347.9</ele>
        <time>2014-11-29T12:00:08Z</time>
      </trkpt>
      <trkpt lat="42.23045" lon="-1.45311">
        <ele>348.2</ele>
        <time>2014-11-29T12:00:08Z</time>
      </trkpt>
      <trkpt lat="42.23058" lon="-1.45292">
        <ele>348.5</ele>
        <time>2014-11-29T12:00:08Z</time>
      </trkpt>
      <trkpt lat="42.23065" lon="-1.45285">
        <ele>348.7</ele>
        <time>2014-11-29T12:00:08Z</time>
      </trkpt>
      <trkpt lat="42.23081" lon="-1.45265">
        <ele>349</ele>
        <time>2014-11-29T12:00:08Z</time>
      </trkpt>
      <trkpt lat="42.23093" lon="-1.4525">
        <ele>349</ele>
        <time>2014-11-29T12:00:08Z</time>
      </trkpt>
      <trkpt lat="42.23105" lon="-1.45236">
        <ele>349</ele>
        <time>2014-11-29T12:00:08Z</time>
      </trkpt>
      <trkpt lat="42.23118" lon="-1.45223">
        <ele>348.9</ele>
        <time>2014-11-29T12:00:08Z</time>
      </trkpt>
      <trkpt lat="42.23127" lon="-1.45214">
        <ele>348.8</ele>
        <time>2014-11-29T12:00:08Z</time>
      </trkpt>
      <trkpt lat="42.23138" lon="-1.45203">
        <ele>348.6</ele>
        <time>2014-11-29T12:00:08Z</time>
      </trkpt>
      <trkpt lat="42.23154" lon="-1.45188">
        <ele>348.4</ele>
        <time>2014-11-29T12:00:08Z</time>
      </trkpt>
      <trkpt lat="42.23184" lon="-1.45161">
        <ele>348.2</ele>
        <time>2014-11-29T12:00:08Z</time>
      </trkpt>
      <trkpt lat="42.23199" lon="-1.45145">
        <ele>348.2</ele>
        <time>2014-11-29T12:00:08Z</time>
      </trkpt>
      <trkpt lat="42.23216" lon="-1.45127">
        <ele>348</ele>
        <time>2014-11-29T12:00:08Z</time>
      </trkpt>
      <trkpt lat="42.23249" lon="-1.45092">
        <ele>347.2</ele>
        <time>2014-11-29T12:00:08Z</time>
      </trkpt>
      <trkpt lat="42.23262" lon="-1.45077">
        <ele>346.4</ele>
        <time>2014-11-29T12:00:08Z</time>
      </trkpt>
      <trkpt lat="42.23269" lon="-1.45067">
        <ele>345.9</ele>
        <time>2014-11-29T12:00:08Z</time>
      </trkpt>
      <trkpt lat="42.23277" lon="-1.45052">
        <ele>345.3</ele>
        <time>2014-11-29T12:00:08Z</time>
      </trkpt>
      <trkpt lat="42.23285" lon="-1.45035">
        <ele>344.8</ele>
        <time>2014-11-29T12:00:08Z</time>
      </trkpt>
      <trkpt lat="42.23294" lon="-1.4501">
        <ele>344</ele>
        <time>2014-11-29T12:00:08Z</time>
      </trkpt>
      <trkpt lat="42.233" lon="-1.44989">
        <ele>343.5</ele>
        <time>2014-11-29T12:00:08Z</time>
      </trkpt>
      <trkpt lat="42.23312" lon="-1.44943">
        <ele>342</ele>
        <time>2014-11-29T12:00:08Z</time>
      </trkpt>
      <trkpt lat="42.2332" lon="-1.44923">
        <ele>341.1</ele>
        <time>2014-11-29T12:00:08Z</time>
      </trkpt>
      <trkpt lat="42.23331" lon="-1.449">
        <ele>340</ele>
        <time>2014-11-29T12:00:08Z</time>
      </trkpt>
      <trkpt lat="42.23351" lon="-1.44861">
        <ele>340.3</ele>
        <time>2014-11-29T12:00:08Z</time>
      </trkpt>
      <trkpt lat="42.23358" lon="-1.44854">
        <ele>340.8</ele>
        <time>2014-11-29T12:00:08Z</time>
      </trkpt>
      <trkpt lat="42.23374" lon="-1.44838">
        <ele>342.2</ele>
        <time>2014-11-29T12:00:08Z</time>
      </trkpt>
      <trkpt lat="42.23389" lon="-1.44827">
        <ele>343.8</ele>
        <time>2014-11-29T12:00:08Z</time>
      </trkpt>
      <trkpt lat="42.23401" lon="-1.44818">
        <ele>344.8</ele>
        <time>2014-11-29T12:00:08Z</time>
      </trkpt>
      <trkpt lat="42.2342" lon="-1.448">
        <ele>346</ele>
        <time>2014-11-29T12:00:08Z</time>
      </trkpt>
      <trkpt lat="42.23442" lon="-1.44777">
        <ele>346.4</ele>
        <time>2014-11-29T12:00:08Z</time>
      </trkpt>
      <trkpt lat="42.23456" lon="-1.44764">
        <ele>346.8</ele>
        <time>2014-11-29T12:00:08Z</time>
      </trkpt>
      <trkpt lat="42.23467" lon="-1.44755">
        <ele>347.1</ele>
        <time>2014-11-29T12:00:08Z</time>
      </trkpt>
      <trkpt lat="42.23487" lon="-1.4474">
        <ele>347.7</ele>
        <time>2014-11-29T12:00:08Z</time>
      </trkpt>
      <trkpt lat="42.23501" lon="-1.44729">
        <ele>348</ele>
        <time>2014-11-29T12:00:08Z</time>
      </trkpt>
      <trkpt lat="42.23508" lon="-1.44721">
        <ele>347.9</ele>
        <time>2014-11-29T12:00:08Z</time>
      </trkpt>
      <trkpt lat="42.23516" lon="-1.44714">
        <ele>347.9</ele>
        <time>2014-11-29T12:00:08Z</time>
      </trkpt>
      <trkpt lat="42.2353" lon="-1.44702">
        <ele>347.9</ele>
        <time>2014-11-29T12:00:08Z</time>
      </trkpt>
      <trkpt lat="42.23544" lon="-1.44689">
        <ele>348.1</ele>
        <time>2014-11-29T12:00:08Z</time>
      </trkpt>
      <trkpt lat="42.23554" lon="-1.4468">
        <ele>348.3</ele>
        <time>2014-11-29T12:00:08Z</time>
      </trkpt>
      <trkpt lat="42.23562" lon="-1.44669">
        <ele>348.7</ele>
        <time>2014-11-29T12:00:08Z</time>
      </trkpt>
      <trkpt lat="42.23572" lon="-1.44654">
        <ele>348.6</ele>
        <time>2014-11-29T12:00:08Z</time>
      </trkpt>
      <trkpt lat="42.23578" lon="-1.44638">
        <ele>348.3</ele>
        <time>2014-11-29T12:00:08Z</time>
      </trkpt>
      <trkpt lat="42.23582" lon="-1.4462">
        <ele>347.9</ele>
        <time>2014-11-29T12:00:08Z</time>
      </trkpt>
      <trkpt lat="42.23586" lon="-1.44567">
        <ele>347.3</ele>
        <time>2014-11-29T12:00:08Z</time>
      </trkpt>
      <trkpt lat="42.23588" lon="-1.44536">
        <ele>347.6</ele>
        <time>2014-11-29T12:00:08Z</time>
      </trkpt>
      <trkpt lat="42.23589" lon="-1.44497">
        <ele>348</ele>
        <time>2014-11-29T12:00:08Z</time>
      </trkpt>
      <trkpt lat="42.2359" lon="-1.44468">
        <ele>348.4</ele>
        <time>2014-11-29T12:00:08Z</time>
      </trkpt>
      <trkpt lat="42.2359" lon="-1.44445">
        <ele>348.6</ele>
        <time>2014-11-29T12:00:08Z</time>
      </trkpt>
      <trkpt lat="42.23589" lon="-1.44429">
        <ele>348.8</ele>
        <time>2014-11-29T12:00:08Z</time>
      </trkpt>
      <trkpt lat="42.23584" lon="-1.44405">
        <ele>349.1</ele>
        <time>2014-11-29T12:00:08Z</time>
      </trkpt>
      <trkpt lat="42.23576" lon="-1.44376">
        <ele>349.6</ele>
        <time>2014-11-29T12:00:08Z</time>
      </trkpt>
      <trkpt lat="42.23565" lon="-1.4434">
        <ele>350.1</ele>
        <time>2014-11-29T12:00:08Z</time>
      </trkpt>
      <trkpt lat="42.23562" lon="-1.44323">
        <ele>350.3</ele>
        <time>2014-11-29T12:00:08Z</time>
      </trkpt>
      <trkpt lat="42.23568" lon="-1.443">
        <ele>350.4</ele>
        <time>2014-11-29T12:00:08Z</time>
      </trkpt>
      <trkpt lat="42.236" lon="-1.44218">
        <ele>349.5</ele>
        <time>2014-11-29T12:00:08Z</time>
      </trkpt>
      <trkpt lat="42.23622" lon="-1.44159">
        <ele>348.6</ele>
        <time>2014-11-29T12:00:08Z</time>
      </trkpt>
      <trkpt lat="42.23649" lon="-1.44089">
        <ele>347.6</ele>
        <time>2014-11-29T12:00:08Z</time>
      </trkpt>
      <trkpt lat="42.23661" lon="-1.44058">
        <ele>346.9</ele>
        <time>2014-11-29T12:00:08Z</time>
      </trkpt>
      <trkpt lat="42.23668" lon="-1.44043">
        <ele>346.5</ele>
        <time>2014-11-29T12:00:08Z</time>
      </trkpt>
      <trkpt lat="42.23678" lon="-1.44029">
        <ele>345.9</ele>
        <time>2014-11-29T12:00:08Z</time>
      </trkpt>
      <trkpt lat="42.23704" lon="-1.43996">
        <ele>344.2</ele>
        <time>2014-11-29T12:00:08Z</time>
      </trkpt>
      <trkpt lat="42.23716" lon="-1.43981">
        <ele>343.4</ele>
        <time>2014-11-29T12:00:08Z</time>
      </trkpt>
      <trkpt lat="42.23732" lon="-1.43956">
        <ele>342.6</ele>
        <time>2014-11-29T12:00:08Z</time>
      </trkpt>
      <trkpt lat="42.23752" lon="-1.43926">
        <ele>342</ele>
        <time>2014-11-29T12:00:08Z</time>
      </trkpt>
      <trkpt lat="42.23783" lon="-1.43884">
        <ele>342.6</ele>
        <time>2014-11-29T12:00:08Z</time>
      </trkpt>
      <trkpt lat="42.23796" lon="-1.43872">
        <ele>342.7</ele>
        <time>2014-11-29T12:00:08Z</time>
      </trkpt>
      <trkpt lat="42.2382" lon="-1.43849">
        <ele>342.9</ele>
        <time>2014-11-29T12:00:08Z</time>
      </trkpt>
      <trkpt lat="42.23865" lon="-1.43806">
        <ele>343.6</ele>
        <time>2014-11-29T12:00:08Z</time>
      </trkpt>
      <trkpt lat="42.23894" lon="-1.43771">
        <ele>343.6</ele>
        <time>2014-11-29T12:00:08Z</time>
      </trkpt>
      <trkpt lat="42.23931" lon="-1.43734">
        <ele>342.2</ele>
        <time>2014-11-29T12:00:08Z</time>
      </trkpt>
      <trkpt lat="42.23959" lon="-1.43701">
        <ele>341.1</ele>
        <time>2014-11-29T12:00:08Z</time>
      </trkpt>
      <trkpt lat="42.23993" lon="-1.43664">
        <ele>340.9</ele>
        <time>2014-11-29T12:00:08Z</time>
      </trkpt>
      <trkpt lat="42.24026" lon="-1.43625">
        <ele>340.2</ele>
        <time>2014-11-29T12:00:08Z</time>
      </trkpt>
      <trkpt lat="42.24087" lon="-1.43556">
        <ele>340</ele>
        <time>2014-11-29T12:00:08Z</time>
      </trkpt>
      <trkpt lat="42.24101" lon="-1.43547">
        <ele>340.7</ele>
        <time>2014-11-29T12:00:08Z</time>
      </trkpt>
      <trkpt lat="42.24117" lon="-1.43536">
        <ele>341.2</ele>
        <time>2014-11-29T12:00:08Z</time>
      </trkpt>
      <trkpt lat="42.24133" lon="-1.43528">
        <ele>341.6</ele>
        <time>2014-11-29T12:00:08Z</time>
      </trkpt>
      <trkpt lat="42.24149" lon="-1.43527">
        <ele>341.8</ele>
        <time>2014-11-29T12:00:08Z</time>
      </trkpt>
      <trkpt lat="42.24161" lon="-1.43524">
        <ele>341.9</ele>
        <time>2014-11-29T12:00:08Z</time>
      </trkpt>
      <trkpt lat="42.24178" lon="-1.43525">
        <ele>342</ele>
        <time>2014-11-29T12:00:08Z</time>
      </trkpt>
      <trkpt lat="42.24213" lon="-1.43531">
        <ele>342</ele>
        <time>2014-11-29T12:00:08Z</time>
      </trkpt>
      <trkpt lat="42.24231" lon="-1.43529">
        <ele>342</ele>
        <time>2014-11-29T12:00:08Z</time>
      </trkpt>
      <trkpt lat="42.24255" lon="-1.43514">
        <ele>342</ele>
        <time>2014-11-29T12:00:08Z</time>
      </trkpt>
      <trkpt lat="42.24282" lon="-1.43498">
        <ele>342</ele>
        <time>2014-11-29T12:00:08Z</time>
      </trkpt>
      <trkpt lat="42.2432" lon="-1.43476">
        <ele>342</ele>
        <time>2014-11-29T12:00:08Z</time>
      </trkpt>
      <trkpt lat="42.24367" lon="-1.4345">
        <ele>341.1</ele>
        <time>2014-11-29T12:00:08Z</time>
      </trkpt>
      <trkpt lat="42.244" lon="-1.43431">
        <ele>340.8</ele>
        <time>2014-11-29T12:00:08Z</time>
      </trkpt>
      <trkpt lat="42.2444" lon="-1.43407">
        <ele>341.4</ele>
        <time>2014-11-29T12:00:08Z</time>
      </trkpt>
      <trkpt lat="42.24461" lon="-1.43396">
        <ele>341.9</ele>
        <time>2014-11-29T12:00:08Z</time>
      </trkpt>
      <trkpt lat="42.245" lon="-1.43378">
        <ele>343</ele>
        <time>2014-11-29T12:00:08Z</time>
      </trkpt>
      <trkpt lat="42.24528" lon="-1.43364">
        <ele>344.4</ele>
        <time>2014-11-29T12:00:08Z</time>
      </trkpt>
      <trkpt lat="42.24553" lon="-1.43351">
        <ele>345.4</ele>
        <time>2014-11-29T12:00:08Z</time>
      </trkpt>
      <trkpt lat="42.24567" lon="-1.43343">
        <ele>345.8</ele>
        <time>2014-11-29T12:00:08Z</time>
      </trkpt>
      <trkpt lat="42.24584" lon="-1.43327">
        <ele>345.9</ele>
        <time>2014-11-29T12:00:08Z</time>
      </trkpt>
      <trkpt lat="42.24608" lon="-1.43291">
        <ele>345.4</ele>
        <time>2014-11-29T12:00:08Z</time>
      </trkpt>
      <trkpt lat="42.2463" lon="-1.43256">
        <ele>345.5</ele>
        <time>2014-11-29T12:00:08Z</time>
      </trkpt>
      <trkpt lat="42.24647" lon="-1.43226">
        <ele>346.8</ele>
        <time>2014-11-29T12:00:08Z</time>
      </trkpt>
      <trkpt lat="42.24665" lon="-1.43198">
        <ele>348.4</ele>
        <time>2014-11-29T12:00:08Z</time>
      </trkpt>
      <trkpt lat="42.24675" lon="-1.43181">
        <ele>349.3</ele>
        <time>2014-11-29T12:00:08Z</time>
      </trkpt>
      <trkpt lat="42.24697" lon="-1.43154">
        <ele>350.1</ele>
        <time>2014-11-29T12:00:08Z</time>
      </trkpt>
      <trkpt lat="42.24708" lon="-1.43142">
        <ele>350.3</ele>
        <time>2014-11-29T12:00:08Z</time>
      </trkpt>
      <trkpt lat="42.24718" lon="-1.43133">
        <ele>350.4</ele>
        <time>2014-11-29T12:00:08Z</time>
      </trkpt>
      <trkpt lat="42.24727" lon="-1.4313">
        <ele>350.4</ele>
        <time>2014-11-29T12:00:08Z</time>
      </trkpt>
      <trkpt lat="42.24747" lon="-1.43125">
        <ele>350.5</ele>
        <time>2014-11-29T12:00:08Z</time>
      </trkpt>
      <trkpt lat="42.24769" lon="-1.43123">
        <ele>350.6</ele>
        <time>2014-11-29T12:00:08Z</time>
      </trkpt>
      <trkpt lat="42.24784" lon="-1.43121">
        <ele>350.7</ele>
        <time>2014-11-29T12:00:08Z</time>
      </trkpt>
      <trkpt lat="42.24816" lon="-1.43118">
        <ele>351</ele>
        <time>2014-11-29T12:00:08Z</time>
      </trkpt>
      <trkpt lat="42.24848" lon="-1.43114">
        <ele>351.2</ele>
        <time>2014-11-29T12:00:08Z</time>
      </trkpt>
      <trkpt lat="42.24883" lon="-1.43111">
        <ele>351.3</ele>
        <time>2014-11-29T12:00:08Z</time>
      </trkpt>
      <trkpt lat="42.2491" lon="-1.43109">
        <ele>351.4</ele>
        <time>2014-11-29T12:00:08Z</time>
      </trkpt>
      <trkpt lat="42.2495" lon="-1.43103">
        <ele>353.3</ele>
        <time>2014-11-29T12:00:08Z</time>
      </trkpt>
      <trkpt lat="42.24974" lon="-1.431">
        <ele>354.6</ele>
        <time>2014-11-29T12:00:08Z</time>
      </trkpt>
      <trkpt lat="42.24999" lon="-1.43093">
        <ele>356</ele>
        <time>2014-11-29T12:00:08Z</time>
      </trkpt>
      <trkpt lat="42.25019" lon="-1.43088">
        <ele>356.9</ele>
        <time>2014-11-29T12:00:08Z</time>
      </trkpt>
      <trkpt lat="42.25039" lon="-1.43089">
        <ele>357.9</ele>
        <time>2014-11-29T12:00:08Z</time>
      </trkpt>
      <trkpt lat="42.25056" lon="-1.4309">
        <ele>358.7</ele>
        <time>2014-11-29T12:00:08Z</time>
      </trkpt>
      <trkpt lat="42.25075" lon="-1.43094">
        <ele>359.7</ele>
        <time>2014-11-29T12:00:08Z</time>
      </trkpt>
      <trkpt lat="42.25091" lon="-1.43102">
        <ele>360</ele>
        <time>2014-11-29T12:00:08Z</time>
      </trkpt>
      <trkpt lat="42.25105" lon="-1.43109">
        <ele>359.7</ele>
        <time>2014-11-29T12:00:08Z</time>
      </trkpt>
      <trkpt lat="42.25121" lon="-1.43114">
        <ele>359.3</ele>
        <time>2014-11-29T12:00:08Z</time>
      </trkpt>
      <trkpt lat="42.25137" lon="-1.43115">
        <ele>358.9</ele>
        <time>2014-11-29T12:00:08Z</time>
      </trkpt>
      <trkpt lat="42.25151" lon="-1.43114">
        <ele>358.4</ele>
        <time>2014-11-29T12:00:08Z</time>
      </trkpt>
      <trkpt lat="42.25171" lon="-1.43108">
        <ele>358</ele>
        <time>2014-11-29T12:00:08Z</time>
      </trkpt>
      <trkpt lat="42.2519" lon="-1.43097">
        <ele>358</ele>
        <time>2014-11-29T12:00:08Z</time>
      </trkpt>
      <trkpt lat="42.25201" lon="-1.43086">
        <ele>358</ele>
        <time>2014-11-29T12:00:08Z</time>
      </trkpt>
      <trkpt lat="42.25214" lon="-1.43062">
        <ele>358.1</ele>
        <time>2014-11-29T12:00:08Z</time>
      </trkpt>
      <trkpt lat="42.25222" lon="-1.43035">
        <ele>358.2</ele>
        <time>2014-11-29T12:00:08Z</time>
      </trkpt>
      <trkpt lat="42.25235" lon="-1.43004">
        <ele>358.2</ele>
        <time>2014-11-29T12:00:08Z</time>
      </trkpt>
      <trkpt lat="42.25251" lon="-1.42985">
        <ele>358.8</ele>
        <time>2014-11-29T12:00:08Z</time>
      </trkpt>
      <trkpt lat="42.25265" lon="-1.42977">
        <ele>360</ele>
        <time>2014-11-29T12:00:08Z</time>
      </trkpt>
      <trkpt lat="42.25282" lon="-1.42963">
        <ele>361.7</ele>
        <time>2014-11-29T12:00:08Z</time>
      </trkpt>
      <trkpt lat="42.25303" lon="-1.42946">
        <ele>363.5</ele>
        <time>2014-11-29T12:00:08Z</time>
      </trkpt>
      <trkpt lat="42.25331" lon="-1.42929">
        <ele>365.6</ele>
        <time>2014-11-29T12:00:08Z</time>
      </trkpt>
      <trkpt lat="42.2535" lon="-1.42914">
        <ele>365.9</ele>
        <time>2014-11-29T12:00:08Z</time>
      </trkpt>
      <trkpt lat="42.25358" lon="-1.42898">
        <ele>365.3</ele>
        <time>2014-11-29T12:00:08Z</time>
      </trkpt>
      <trkpt lat="42.25364" lon="-1.42878">
        <ele>364.5</ele>
        <time>2014-11-29T12:00:08Z</time>
      </trkpt>
      <trkpt lat="42.25363" lon="-1.42864">
        <ele>363.9</ele>
        <time>2014-11-29T12:00:08Z</time>
      </trkpt>
      <trkpt lat="42.25358" lon="-1.42853">
        <ele>363.4</ele>
        <time>2014-11-29T12:00:08Z</time>
      </trkpt>
      <trkpt lat="42.25345" lon="-1.42832">
        <ele>362.3</ele>
        <time>2014-11-29T12:00:08Z</time>
      </trkpt>
      <trkpt lat="42.25339" lon="-1.42819">
        <ele>362.1</ele>
        <time>2014-11-29T12:00:08Z</time>
      </trkpt>
      <trkpt lat="42.25327" lon="-1.42793">
        <ele>362.1</ele>
        <time>2014-11-29T12:00:08Z</time>
      </trkpt>
      <trkpt lat="42.25314" lon="-1.42764">
        <ele>362.3</ele>
        <time>2014-11-29T12:00:08Z</time>
      </trkpt>
      <trkpt lat="42.25309" lon="-1.42746">
        <ele>362.3</ele>
        <time>2014-11-29T12:00:08Z</time>
      </trkpt>
      <trkpt lat="42.25307" lon="-1.42726">
        <ele>362</ele>
        <time>2014-11-29T12:00:08Z</time>
      </trkpt>
      <trkpt lat="42.25299" lon="-1.42691">
        <ele>361.7</ele>
        <time>2014-11-29T12:00:08Z</time>
      </trkpt>
      <trkpt lat="42.25292" lon="-1.42662">
        <ele>361.5</ele>
        <time>2014-11-29T12:00:08Z</time>
      </trkpt>
      <trkpt lat="42.25282" lon="-1.42631">
        <ele>361.9</ele>
        <time>2014-11-29T12:00:08Z</time>
      </trkpt>
      <trkpt lat="42.2527" lon="-1.42596">
        <ele>362.4</ele>
        <time>2014-11-29T12:00:08Z</time>
      </trkpt>
      <trkpt lat="42.25262" lon="-1.42566">
        <ele>362.2</ele>
        <time>2014-11-29T12:00:08Z</time>
      </trkpt>
      <trkpt lat="42.25254" lon="-1.42531">
        <ele>361.1</ele>
        <time>2014-11-29T12:00:08Z</time>
      </trkpt>
      <trkpt lat="42.25251" lon="-1.42502">
        <ele>360.1</ele>
        <time>2014-11-29T12:00:08Z</time>
      </trkpt>
      <trkpt lat="42.25245" lon="-1.42458">
        <ele>361.2</ele>
        <time>2014-11-29T12:00:08Z</time>
      </trkpt>
      <trkpt lat="42.25242" lon="-1.42424">
        <ele>362.1</ele>
        <time>2014-11-29T12:00:08Z</time>
      </trkpt>
      <trkpt lat="42.25242" lon="-1.42403">
        <ele>362.6</ele>
        <time>2014-11-29T12:00:08Z</time>
      </trkpt>
      <trkpt lat="42.25246" lon="-1.42365">
        <ele>363.3</ele>
        <time>2014-11-29T12:00:08Z</time>
      </trkpt>
      <trkpt lat="42.25247" lon="-1.42345">
        <ele>363.8</ele>
        <time>2014-11-29T12:00:08Z</time>
      </trkpt>
      <trkpt lat="42.25247" lon="-1.42319">
        <ele>364.3</ele>
        <time>2014-11-29T12:00:08Z</time>
      </trkpt>
      <trkpt lat="42.25245" lon="-1.42287">
        <ele>365.1</ele>
        <time>2014-11-29T12:00:08Z</time>
      </trkpt>
      <trkpt lat="42.2524" lon="-1.42254">
        <ele>365.8</ele>
        <time>2014-11-29T12:00:08Z</time>
      </trkpt>
      <trkpt lat="42.25229" lon="-1.42211">
        <ele>365.5</ele>
        <time>2014-11-29T12:00:08Z</time>
      </trkpt>
      <trkpt lat="42.25225" lon="-1.42182">
        <ele>365.4</ele>
        <time>2014-11-29T12:00:08Z</time>
      </trkpt>
      <trkpt lat="42.25221" lon="-1.42147">
        <ele>365.3</ele>
        <time>2014-11-29T12:00:08Z</time>
      </trkpt>
      <trkpt lat="42.25223" lon="-1.42125">
        <ele>365.3</ele>
        <time>2014-11-29T12:00:08Z</time>
      </trkpt>
      <trkpt lat="42.2522" lon="-1.42094">
        <ele>365.4</ele>
        <time>2014-11-29T12:00:08Z</time>
      </trkpt>
      <trkpt lat="42.25217" lon="-1.42081">
        <ele>365.4</ele>
        <time>2014-11-29T12:00:08Z</time>
      </trkpt>
      <trkpt lat="42.2521" lon="-1.42058">
        <ele>365.3</ele>
        <time>2014-11-29T12:00:08Z</time>
      </trkpt>
      <trkpt lat="42.25197" lon="-1.42037">
        <ele>365.3</ele>
        <time>2014-11-29T12:00:08Z</time>
      </trkpt>
      <trkpt lat="42.25181" lon="-1.42">
        <ele>365</ele>
        <time>2014-11-29T12:00:08Z</time>
      </trkpt>
      <trkpt lat="42.25178" lon="-1.41977">
        <ele>365</ele>
        <time>2014-11-29T12:00:08Z</time>
      </trkpt>
      <trkpt lat="42.25178" lon="-1.41955">
        <ele>365</ele>
        <time>2014-11-29T12:00:08Z</time>
      </trkpt>
      <trkpt lat="42.25181" lon="-1.41898">
        <ele>365.1</ele>
        <time>2014-11-29T12:00:08Z</time>
      </trkpt>
      <trkpt lat="42.25188" lon="-1.41886">
        <ele>365.1</ele>
        <time>2014-11-29T12:00:08Z</time>
      </trkpt>
      <trkpt lat="42.252" lon="-1.41869">
        <ele>364.9</ele>
        <time>2014-11-29T12:00:08Z</time>
      </trkpt>
      <trkpt lat="42.25225" lon="-1.41835">
        <ele>363.9</ele>
        <time>2014-11-29T12:00:08Z</time>
      </trkpt>
      <trkpt lat="42.25234" lon="-1.41823">
        <ele>363.5</ele>
        <time>2014-11-29T12:00:08Z</time>
      </trkpt>
      <trkpt lat="42.2524" lon="-1.41812">
        <ele>363.2</ele>
        <time>2014-11-29T12:00:08Z</time>
      </trkpt>
      <trkpt lat="42.25245" lon="-1.418">
        <ele>362.9</ele>
        <time>2014-11-29T12:00:08Z</time>
      </trkpt>
      <trkpt lat="42.25246" lon="-1.41791">
        <ele>362.7</ele>
        <time>2014-11-29T12:00:08Z</time>
      </trkpt>
      <trkpt lat="42.25254" lon="-1.41783">
        <ele>362.4</ele>
        <time>2014-11-29T12:00:08Z</time>
      </trkpt>
      <trkpt lat="42.2529" lon="-1.41747">
        <ele>361.6</ele>
        <time>2014-11-29T12:00:08Z</time>
      </trkpt>
      <trkpt lat="42.25309" lon="-1.41728">
        <ele>361.8</ele>
        <time>2014-11-29T12:00:08Z</time>
      </trkpt>
      <trkpt lat="42.2532" lon="-1.41713">
        <ele>361.8</ele>
        <time>2014-11-29T12:00:08Z</time>
      </trkpt>
      <trkpt lat="42.25331" lon="-1.41694">
        <ele>361.7</ele>
        <time>2014-11-29T12:00:08Z</time>
      </trkpt>
      <trkpt lat="42.25359" lon="-1.41646">
        <ele>363.6</ele>
        <time>2014-11-29T12:00:08Z</time>
      </trkpt>
      <trkpt lat="42.25375" lon="-1.4162">
        <ele>364.3</ele>
        <time>2014-11-29T12:00:08Z</time>
      </trkpt>
      <trkpt lat="42.25381" lon="-1.41614">
        <ele>364.4</ele>
        <time>2014-11-29T12:00:08Z</time>
      </trkpt>
      <trkpt lat="42.25404" lon="-1.41597">
        <ele>364.4</ele>
        <time>2014-11-29T12:00:08Z</time>
      </trkpt>
      <trkpt lat="42.25434" lon="-1.41577">
        <ele>365.6</ele>
        <time>2014-11-29T12:00:08Z</time>
      </trkpt>
      <trkpt lat="42.25459" lon="-1.4156">
        <ele>368.1</ele>
        <time>2014-11-29T12:00:08Z</time>
      </trkpt>
      <trkpt lat="42.25484" lon="-1.41541">
        <ele>370.1</ele>
        <time>2014-11-29T12:00:08Z</time>
      </trkpt>
      <trkpt lat="42.25501" lon="-1.41524">
        <ele>371.5</ele>
        <time>2014-11-29T12:00:08Z</time>
      </trkpt>
      <trkpt lat="42.25509" lon="-1.41515">
        <ele>372.4</ele>
        <time>2014-11-29T12:00:08Z</time>
      </trkpt>
      <trkpt lat="42.25518" lon="-1.41517">
        <ele>373.1</ele>
        <time>2014-11-29T12:00:08Z</time>
      </trkpt>
      <trkpt lat="42.25523" lon="-1.4152">
        <ele>373.4</ele>
        <time>2014-11-29T12:00:08Z</time>
      </trkpt>
      <trkpt lat="42.25527" lon="-1.41537">
        <ele>373.2</ele>
        <time>2014-11-29T12:00:08Z</time>
      </trkpt>
      <trkpt lat="42.25532" lon="-1.41554">
        <ele>373.2</ele>
        <time>2014-11-29T12:00:08Z</time>
      </trkpt>
      <trkpt lat="42.25542" lon="-1.41565">
        <ele>373.6</ele>
        <time>2014-11-29T12:00:08Z</time>
      </trkpt>
      <trkpt lat="42.25562" lon="-1.41581">
        <ele>374.5</ele>
        <time>2014-11-29T12:00:08Z</time>
      </trkpt>
      <trkpt lat="42.25576" lon="-1.41601">
        <ele>374.8</ele>
        <time>2014-11-29T12:00:08Z</time>
      </trkpt>
      <trkpt lat="42.25588" lon="-1.4162">
        <ele>374.9</ele>
        <time>2014-11-29T12:00:08Z</time>
      </trkpt>
      <trkpt lat="42.25609" lon="-1.41652">
        <ele>374.6</ele>
        <time>2014-11-29T12:00:08Z</time>
      </trkpt>
      <trkpt lat="42.25621" lon="-1.4167">
        <ele>374.2</ele>
        <time>2014-11-29T12:00:08Z</time>
      </trkpt>
      <trkpt lat="42.25667" lon="-1.41736">
        <ele>371.8</ele>
        <time>2014-11-29T12:00:08Z</time>
      </trkpt>
      <trkpt lat="42.25685" lon="-1.41765">
        <ele>369.9</ele>
        <time>2014-11-29T12:00:08Z</time>
      </trkpt>
      <trkpt lat="42.25704" lon="-1.41793">
        <ele>368.7</ele>
        <time>2014-11-29T12:00:08Z</time>
      </trkpt>
      <trkpt lat="42.25724" lon="-1.41823">
        <ele>367.9</ele>
        <time>2014-11-29T12:00:08Z</time>
      </trkpt>
      <trkpt lat="42.25735" lon="-1.41831">
        <ele>367.8</ele>
        <time>2014-11-29T12:00:08Z</time>
      </trkpt>
      <trkpt lat="42.25748" lon="-1.41837">
        <ele>367.8</ele>
        <time>2014-11-29T12:00:08Z</time>
      </trkpt>
      <trkpt lat="42.25767" lon="-1.41842">
        <ele>367.5</ele>
        <time>2014-11-29T12:00:08Z</time>
      </trkpt>
      <trkpt lat="42.25813" lon="-1.41853">
        <ele>366.5</ele>
        <time>2014-11-29T12:00:08Z</time>
      </trkpt>
      <trkpt lat="42.25851" lon="-1.4186">
        <ele>365.7</ele>
        <time>2014-11-29T12:00:08Z</time>
      </trkpt>
      <trkpt lat="42.25881" lon="-1.41867">
        <ele>364.9</ele>
        <time>2014-11-29T12:00:08Z</time>
      </trkpt>
      <trkpt lat="42.25903" lon="-1.41873">
        <ele>364.3</ele>
        <time>2014-11-29T12:00:08Z</time>
      </trkpt>
      <trkpt lat="42.25916" lon="-1.41875">
        <ele>364</ele>
        <time>2014-11-29T12:00:08Z</time>
      </trkpt>
      <trkpt lat="42.25941" lon="-1.41877">
        <ele>364.5</ele>
        <time>2014-11-29T12:00:08Z</time>
      </trkpt>
      <trkpt lat="42.25971" lon="-1.4188">
        <ele>365.3</ele>
        <time>2014-11-29T12:00:08Z</time>
      </trkpt>
      <trkpt lat="42.26005" lon="-1.41881">
        <ele>365.9</ele>
        <time>2014-11-29T12:00:08Z</time>
      </trkpt>
      <trkpt lat="42.26037" lon="-1.41885">
        <ele>365.3</ele>
        <time>2014-11-29T12:00:08Z</time>
      </trkpt>
      <trkpt lat="42.26072" lon="-1.41886">
        <ele>364.6</ele>
        <time>2014-11-29T12:00:08Z</time>
      </trkpt>
      <trkpt lat="42.26084" lon="-1.41888">
        <ele>364.3</ele>
        <time>2014-11-29T12:00:08Z</time>
      </trkpt>
      <trkpt lat="42.26113" lon="-1.41889">
        <ele>364.1</ele>
        <time>2014-11-29T12:00:08Z</time>
      </trkpt>
      <trkpt lat="42.26137" lon="-1.41893">
        <ele>363.8</ele>
        <time>2014-11-29T12:00:08Z</time>
      </trkpt>
      <trkpt lat="42.26156" lon="-1.41897">
        <ele>363.6</ele>
        <time>2014-11-29T12:00:08Z</time>
      </trkpt>
      <trkpt lat="42.26166" lon="-1.419">
        <ele>363.4</ele>
        <time>2014-11-29T12:00:08Z</time>
      </trkpt>
      <trkpt lat="42.26182" lon="-1.41899">
        <ele>363.7</ele>
        <time>2014-11-29T12:00:08Z</time>
      </trkpt>
      <trkpt lat="42.26201" lon="-1.41895">
        <ele>364.2</ele>
        <time>2014-11-29T12:00:08Z</time>
      </trkpt>
      <trkpt lat="42.26225" lon="-1.41888">
        <ele>364.9</ele>
        <time>2014-11-29T12:00:08Z</time>
      </trkpt>
      <trkpt lat="42.2626" lon="-1.41879">
        <ele>365.3</ele>
        <time>2014-11-29T12:00:08Z</time>
      </trkpt>
      <trkpt lat="42.2629" lon="-1.41872">
        <ele>365.1</ele>
        <time>2014-11-29T12:00:08Z</time>
      </trkpt>
      <trkpt lat="42.26315" lon="-1.41866">
        <ele>365</ele>
        <time>2014-11-29T12:00:08Z</time>
      </trkpt>
      <trkpt lat="42.26333" lon="-1.4186">
        <ele>365</ele>
        <time>2014-11-29T12:00:08Z</time>
      </trkpt>
      <trkpt lat="42.26348" lon="-1.41858">
        <ele>365.3</ele>
        <time>2014-11-29T12:00:08Z</time>
      </trkpt>
      <trkpt lat="42.26379" lon="-1.41854">
        <ele>365.9</ele>
        <time>2014-11-29T12:00:08Z</time>
      </trkpt>
      <trkpt lat="42.26403" lon="-1.41854">
        <ele>366.3</ele>
        <time>2014-11-29T12:00:08Z</time>
      </trkpt>
      <trkpt lat="42.26432" lon="-1.41851">
        <ele>366.6</ele>
        <time>2014-11-29T12:00:08Z</time>
      </trkpt>
      <trkpt lat="42.26472" lon="-1.41847">
        <ele>366.7</ele>
        <time>2014-11-29T12:00:08Z</time>
      </trkpt>
      <trkpt lat="42.26513" lon="-1.41847">
        <ele>365.7</ele>
        <time>2014-11-29T12:00:08Z</time>
      </trkpt>
      <trkpt lat="42.26531" lon="-1.41856">
        <ele>364.4</ele>
        <time>2014-11-29T12:00:08Z</time>
      </trkpt>
      <trkpt lat="42.26547" lon="-1.41867">
        <ele>363.2</ele>
        <time>2014-11-29T12:00:08Z</time>
      </trkpt>
      <trkpt lat="42.2656" lon="-1.41871">
        <ele>362.4</ele>
        <time>2014-11-29T12:00:08Z</time>
      </trkpt>
      <trkpt lat="42.26584" lon="-1.41875">
        <ele>360.9</ele>
        <time>2014-11-29T12:00:08Z</time>
      </trkpt>
      <trkpt lat="42.26608" lon="-1.41878">
        <ele>360.2</ele>
        <time>2014-11-29T12:00:08Z</time>
      </trkpt>
      <trkpt lat="42.26643" lon="-1.41881">
        <ele>359.2</ele>
        <time>2014-11-29T12:00:08Z</time>
      </trkpt>
      <trkpt lat="42.26664" lon="-1.41878">
        <ele>358.6</ele>
        <time>2014-11-29T12:00:08Z</time>
      </trkpt>
      <trkpt lat="42.26694" lon="-1.41865">
        <ele>357.4</ele>
        <time>2014-11-29T12:00:08Z</time>
      </trkpt>
      <trkpt lat="42.26711" lon="-1.41851">
        <ele>356.6</ele>
        <time>2014-11-29T12:00:08Z</time>
      </trkpt>
      <trkpt lat="42.26726" lon="-1.41823">
        <ele>356.1</ele>
        <time>2014-11-29T12:00:08Z</time>
      </trkpt>
      <trkpt lat="42.26756" lon="-1.41782">
        <ele>356.3</ele>
        <time>2014-11-29T12:00:08Z</time>
      </trkpt>
      <trkpt lat="42.26772" lon="-1.41763">
        <ele>357</ele>
        <time>2014-11-29T12:00:08Z</time>
      </trkpt>
      <trkpt lat="42.26784" lon="-1.41756">
        <ele>357.3</ele>
        <time>2014-11-29T12:00:08Z</time>
      </trkpt>
      <trkpt lat="42.26799" lon="-1.41747">
        <ele>357.6</ele>
        <time>2014-11-29T12:00:08Z</time>
      </trkpt>
      <trkpt lat="42.26836" lon="-1.41723">
        <ele>358.1</ele>
        <time>2014-11-29T12:00:08Z</time>
      </trkpt>
      <trkpt lat="42.26864" lon="-1.41709">
        <ele>358.7</ele>
        <time>2014-11-29T12:00:08Z</time>
      </trkpt>
      <trkpt lat="42.26883" lon="-1.41697">
        <ele>359</ele>
        <time>2014-11-29T12:00:08Z</time>
      </trkpt>
      <trkpt lat="42.26903" lon="-1.41686">
        <ele>359.2</ele>
        <time>2014-11-29T12:00:08Z</time>
      </trkpt>
      <trkpt lat="42.26922" lon="-1.41677">
        <ele>359.6</ele>
        <time>2014-11-29T12:00:08Z</time>
      </trkpt>
      <trkpt lat="42.26944" lon="-1.41673">
        <ele>360.8</ele>
        <time>2014-11-29T12:00:08Z</time>
      </trkpt>
      <trkpt lat="42.26964" lon="-1.41671">
        <ele>361.9</ele>
        <time>2014-11-29T12:00:08Z</time>
      </trkpt>
      <trkpt lat="42.26987" lon="-1.41668">
        <ele>363.3</ele>
        <time>2014-11-29T12:00:08Z</time>
      </trkpt>
      <trkpt lat="42.27016" lon="-1.41669">
        <ele>364.4</ele>
        <time>2014-11-29T12:00:08Z</time>
      </trkpt>
      <trkpt lat="42.27034" lon="-1.41668">
        <ele>364.8</ele>
        <time>2014-11-29T12:00:08Z</time>
      </trkpt>
      <trkpt lat="42.27054" lon="-1.4167">
        <ele>365.3</ele>
        <time>2014-11-29T12:00:08Z</time>
      </trkpt>
      <trkpt lat="42.27079" lon="-1.41676">
        <ele>366</ele>
        <time>2014-11-29T12:00:08Z</time>
      </trkpt>
      <trkpt lat="42.27099" lon="-1.41678">
        <ele>366.9</ele>
        <time>2014-11-29T12:00:08Z</time>
      </trkpt>
      <trkpt lat="42.27116" lon="-1.41682">
        <ele>367.6</ele>
        <time>2014-11-29T12:00:08Z</time>
      </trkpt>
      <trkpt lat="42.27142" lon="-1.41691">
        <ele>368.7</ele>
        <time>2014-11-29T12:00:08Z</time>
      </trkpt>
      <trkpt lat="42.27158" lon="-1.41693">
        <ele>369.3</ele>
        <time>2014-11-29T12:00:08Z</time>
      </trkpt>
      <trkpt lat="42.27174" lon="-1.41691">
        <ele>370</ele>
        <time>2014-11-29T12:00:08Z</time>
      </trkpt>
      <trkpt lat="42.27187" lon="-1.41684">
        <ele>370.6</ele>
        <time>2014-11-29T12:00:08Z</time>
      </trkpt>
      <trkpt lat="42.27202" lon="-1.41669">
        <ele>371.3</ele>
        <time>2014-11-29T12:00:08Z</time>
      </trkpt>
      <trkpt lat="42.27218" lon="-1.41655">
        <ele>372.1</ele>
        <time>2014-11-29T12:00:08Z</time>
      </trkpt>
      <trkpt lat="42.2725" lon="-1.41638">
        <ele>373.7</ele>
        <time>2014-11-29T12:00:08Z</time>
      </trkpt>
      <trkpt lat="42.27264" lon="-1.41633">
        <ele>373.9</ele>
        <time>2014-11-29T12:00:08Z</time>
      </trkpt>
      <trkpt lat="42.27277" lon="-1.41633">
        <ele>374.1</ele>
        <time>2014-11-29T12:00:08Z</time>
      </trkpt>
      <trkpt lat="42.27296" lon="-1.41639">
        <ele>374.2</ele>
        <time>2014-11-29T12:00:08Z</time>
      </trkpt>
      <trkpt lat="42.27316" lon="-1.41642">
        <ele>374.5</ele>
        <time>2014-11-29T12:00:08Z</time>
      </trkpt>
      <trkpt lat="42.27331" lon="-1.41639">
        <ele>374.6</ele>
        <time>2014-11-29T12:00:08Z</time>
      </trkpt>
      <trkpt lat="42.27341" lon="-1.41631">
        <ele>374.1</ele>
        <time>2014-11-29T12:00:08Z</time>
      </trkpt>
      <trkpt lat="42.27354" lon="-1.41617">
        <ele>373.2</ele>
        <time>2014-11-29T12:00:08Z</time>
      </trkpt>
      <trkpt lat="42.27367" lon="-1.41602">
        <ele>372.4</ele>
        <time>2014-11-29T12:00:08Z</time>
      </trkpt>
      <trkpt lat="42.27382" lon="-1.41587">
        <ele>371.7</ele>
        <time>2014-11-29T12:00:08Z</time>
      </trkpt>
      <trkpt lat="42.27393" lon="-1.41581">
        <ele>371.1</ele>
        <time>2014-11-29T12:00:08Z</time>
      </trkpt>
      <trkpt lat="42.27409" lon="-1.41581">
        <ele>370.4</ele>
        <time>2014-11-29T12:00:08Z</time>
      </trkpt>
      <trkpt lat="42.27434" lon="-1.41576">
        <ele>370.1</ele>
        <time>2014-11-29T12:00:08Z</time>
      </trkpt>
      <trkpt lat="42.27454" lon="-1.41574">
        <ele>370.1</ele>
        <time>2014-11-29T12:00:08Z</time>
      </trkpt>
      <trkpt lat="42.2748" lon="-1.41569">
        <ele>370.2</ele>
        <time>2014-11-29T12:00:08Z</time>
      </trkpt>
      <trkpt lat="42.27501" lon="-1.41565">
        <ele>370.2</ele>
        <time>2014-11-29T12:00:08Z</time>
      </trkpt>
      <trkpt lat="42.27528" lon="-1.41561">
        <ele>370.4</ele>
        <time>2014-11-29T12:00:08Z</time>
      </trkpt>
      <trkpt lat="42.27558" lon="-1.41557">
        <ele>370.5</ele>
        <time>2014-11-29T12:00:08Z</time>
      </trkpt>
      <trkpt lat="42.27594" lon="-1.41552">
        <ele>370.7</ele>
        <time>2014-11-29T12:00:08Z</time>
      </trkpt>
      <trkpt lat="42.27625" lon="-1.41544">
        <ele>370.5</ele>
        <time>2014-11-29T12:00:08Z</time>
      </trkpt>
      <trkpt lat="42.27654" lon="-1.41538">
        <ele>370.2</ele>
        <time>2014-11-29T12:00:08Z</time>
      </trkpt>
      <trkpt lat="42.27691" lon="-1.41531">
        <ele>369.9</ele>
        <time>2014-11-29T12:00:08Z</time>
      </trkpt>
      <trkpt lat="42.27709" lon="-1.41533">
        <ele>369.8</ele>
        <time>2014-11-29T12:00:08Z</time>
      </trkpt>
      <trkpt lat="42.27738" lon="-1.41545">
        <ele>369.5</ele>
        <time>2014-11-29T12:00:08Z</time>
      </trkpt>
      <trkpt lat="42.2777" lon="-1.41557">
        <ele>369.7</ele>
        <time>2014-11-29T12:00:08Z</time>
      </trkpt>
      <trkpt lat="42.278" lon="-1.41567">
        <ele>370</ele>
        <time>2014-11-29T12:00:08Z</time>
      </trkpt>
      <trkpt lat="42.27817" lon="-1.41576">
        <ele>370</ele>
        <time>2014-11-29T12:00:08Z</time>
      </trkpt>
      <trkpt lat="42.27843" lon="-1.41574">
        <ele>371</ele>
        <time>2014-11-29T12:00:08Z</time>
      </trkpt>
      <trkpt lat="42.27873" lon="-1.41578">
        <ele>372.9</ele>
        <time>2014-11-29T12:00:08Z</time>
      </trkpt>
      <trkpt lat="42.27924" lon="-1.41582">
        <ele>376.2</ele>
        <time>2014-11-29T12:00:08Z</time>
      </trkpt>
      <trkpt lat="42.27973" lon="-1.41585">
        <ele>377.4</ele>
        <time>2014-11-29T12:00:08Z</time>
      </trkpt>
      <trkpt lat="42.28015" lon="-1.41589">
        <ele>378.6</ele>
        <time>2014-11-29T12:00:08Z</time>
      </trkpt>
      <trkpt lat="42.28066" lon="-1.41597">
        <ele>380</ele>
        <time>2014-11-29T12:00:08Z</time>
      </trkpt>
      <trkpt lat="42.28078" lon="-1.41602">
        <ele>380.2</ele>
        <time>2014-11-29T12:00:08Z</time>
      </trkpt>
      <trkpt lat="42.28115" lon="-1.4161">
        <ele>380.3</ele>
        <time>2014-11-29T12:00:08Z</time>
      </trkpt>
      <trkpt lat="42.28144" lon="-1.41616">
        <ele>380.3</ele>
        <time>2014-11-29T12:00:08Z</time>
      </trkpt>
      <trkpt lat="42.28181" lon="-1.4162">
        <ele>380</ele>
        <time>2014-11-29T12:00:08Z</time>
      </trkpt>
      <trkpt lat="42.28202" lon="-1.41624">
        <ele>379.6</ele>
        <time>2014-11-29T12:00:08Z</time>
      </trkpt>
      <trkpt lat="42.28229" lon="-1.41627">
        <ele>379.2</ele>
        <time>2014-11-29T12:00:08Z</time>
      </trkpt>
      <trkpt lat="42.28272" lon="-1.41642">
        <ele>378.4</ele>
        <time>2014-11-29T12:00:08Z</time>
      </trkpt>
      <trkpt lat="42.28289" lon="-1.41653">
        <ele>378.1</ele>
        <time>2014-11-29T12:00:08Z</time>
      </trkpt>
      <trkpt lat="42.28316" lon="-1.41669">
        <ele>377.7</ele>
        <time>2014-11-29T12:00:08Z</time>
      </trkpt>
      <trkpt lat="42.28336" lon="-1.41684">
        <ele>377.9</ele>
        <time>2014-11-29T12:00:08Z</time>
      </trkpt>
      <trkpt lat="42.28347" lon="-1.41691">
        <ele>378.7</ele>
        <time>2014-11-29T12:00:08Z</time>
      </trkpt>
      <trkpt lat="42.28364" lon="-1.41696">
        <ele>380.3</ele>
        <time>2014-11-29T12:00:08Z</time>
      </trkpt>
      <trkpt lat="42.28375" lon="-1.41699">
        <ele>381.2</ele>
        <time>2014-11-29T12:00:08Z</time>
      </trkpt>
      <trkpt lat="42.28392" lon="-1.41703">
        <ele>382.8</ele>
        <time>2014-11-29T12:00:08Z</time>
      </trkpt>
      <trkpt lat="42.28406" lon="-1.41704">
        <ele>384.1</ele>
        <time>2014-11-29T12:00:08Z</time>
      </trkpt>
      <trkpt lat="42.28418" lon="-1.41701">
        <ele>385.2</ele>
        <time>2014-11-29T12:00:08Z</time>
      </trkpt>
      <trkpt lat="42.28428" lon="-1.41707">
        <ele>385.5</ele>
        <time>2014-11-29T12:00:08Z</time>
      </trkpt>
      <trkpt lat="42.28442" lon="-1.4172">
        <ele>385.8</ele>
        <time>2014-11-29T12:00:08Z</time>
      </trkpt>
      <trkpt lat="42.28474" lon="-1.41743">
        <ele>386.3</ele>
        <time>2014-11-29T12:00:08Z</time>
      </trkpt>
      <trkpt lat="42.28492" lon="-1.41754">
        <ele>386.6</ele>
        <time>2014-11-29T12:00:08Z</time>
      </trkpt>
      <trkpt lat="42.28508" lon="-1.4177">
        <ele>386.5</ele>
        <time>2014-11-29T12:00:08Z</time>
      </trkpt>
      <trkpt lat="42.28517" lon="-1.41778">
        <ele>386.1</ele>
        <time>2014-11-29T12:00:08Z</time>
      </trkpt>
      <trkpt lat="42.28534" lon="-1.41783">
        <ele>385.6</ele>
        <time>2014-11-29T12:00:08Z</time>
      </trkpt>
      <trkpt lat="42.28575" lon="-1.4179">
        <ele>384.2</ele>
        <time>2014-11-29T12:00:08Z</time>
      </trkpt>
      <trkpt lat="42.28623" lon="-1.41785">
        <ele>383.8</ele>
        <time>2014-11-29T12:00:08Z</time>
      </trkpt>
      <trkpt lat="42.28671" lon="-1.41781">
        <ele>383.6</ele>
        <time>2014-11-29T12:00:08Z</time>
      </trkpt>
      <trkpt lat="42.28713" lon="-1.41777">
        <ele>382.9</ele>
        <time>2014-11-29T12:00:08Z</time>
      </trkpt>
      <trkpt lat="42.28778" lon="-1.41768">
        <ele>383</ele>
        <time>2014-11-29T12:00:08Z</time>
      </trkpt>
      <trkpt lat="42.28837" lon="-1.41759">
        <ele>383.9</ele>
        <time>2014-11-29T12:00:08Z</time>
      </trkpt>
      <trkpt lat="42.28895" lon="-1.4175">
        <ele>384.7</ele>
        <time>2014-11-29T12:00:08Z</time>
      </trkpt>
      <trkpt lat="42.28932" lon="-1.41744">
        <ele>385.7</ele>
        <time>2014-11-29T12:00:08Z</time>
      </trkpt>
      <trkpt lat="42.28957" lon="-1.41742">
        <ele>386.4</ele>
        <time>2014-11-29T12:00:08Z</time>
      </trkpt>
      <trkpt lat="42.28969" lon="-1.41745">
        <ele>386.5</ele>
        <time>2014-11-29T12:00:08Z</time>
      </trkpt>
      <trkpt lat="42.29026" lon="-1.4177">
        <ele>387.1</ele>
        <time>2014-11-29T12:00:08Z</time>
      </trkpt>
      <trkpt lat="42.2908" lon="-1.41796">
        <ele>388.1</ele>
        <time>2014-11-29T12:00:08Z</time>
      </trkpt>
      <trkpt lat="42.29146" lon="-1.41822">
        <ele>388.8</ele>
        <time>2014-11-29T12:00:08Z</time>
      </trkpt>
      <trkpt lat="42.29168" lon="-1.4183">
        <ele>389.1</ele>
        <time>2014-11-29T12:00:08Z</time>
      </trkpt>
      <trkpt lat="42.2919" lon="-1.41832">
        <ele>388.4</ele>
        <time>2014-11-29T12:00:08Z</time>
      </trkpt>
      <trkpt lat="42.29203" lon="-1.41831">
        <ele>388.2</ele>
        <time>2014-11-29T12:00:08Z</time>
      </trkpt>
      <trkpt lat="42.29233" lon="-1.41824">
        <ele>387.8</ele>
        <time>2014-11-29T12:00:08Z</time>
      </trkpt>
      <trkpt lat="42.29274" lon="-1.41818">
        <ele>387.4</ele>
        <time>2014-11-29T12:00:08Z</time>
      </trkpt>
      <trkpt lat="42.29288" lon="-1.41817">
        <ele>387.2</ele>
        <time>2014-11-29T12:00:08Z</time>
      </trkpt>
      <trkpt lat="42.293" lon="-1.41829">
        <ele>386.1</ele>
        <time>2014-11-29T12:00:08Z</time>
      </trkpt>
      <trkpt lat="42.29318" lon="-1.41863">
        <ele>384.9</ele>
        <time>2014-11-29T12:00:08Z</time>
      </trkpt>
      <trkpt lat="42.29354" lon="-1.41921">
        <ele>384.9</ele>
        <time>2014-11-29T12:00:08Z</time>
      </trkpt>
      <trkpt lat="42.29368" lon="-1.41947">
        <ele>385.6</ele>
        <time>2014-11-29T12:00:08Z</time>
      </trkpt>
      <trkpt lat="42.29374" lon="-1.41964">
        <ele>385.9</ele>
        <time>2014-11-29T12:00:08Z</time>
      </trkpt>
      <trkpt lat="42.2938" lon="-1.41974">
        <ele>386.3</ele>
        <time>2014-11-29T12:00:08Z</time>
      </trkpt>
      <trkpt lat="42.29394" lon="-1.41984">
        <ele>387.3</ele>
        <time>2014-11-29T12:00:08Z</time>
      </trkpt>
      <trkpt lat="42.29418" lon="-1.42014">
        <ele>388.8</ele>
        <time>2014-11-29T12:00:08Z</time>
      </trkpt>
      <trkpt lat="42.2944" lon="-1.42044">
        <ele>388.9</ele>
        <time>2014-11-29T12:00:08Z</time>
      </trkpt>
      <trkpt lat="42.29468" lon="-1.42065">
        <ele>388.7</ele>
        <time>2014-11-29T12:00:08Z</time>
      </trkpt>
      <trkpt lat="42.29511" lon="-1.4209">
        <ele>387.9</ele>
        <time>2014-11-29T12:00:08Z</time>
      </trkpt>
      <trkpt lat="42.29533" lon="-1.42106">
        <ele>387.6</ele>
        <time>2014-11-29T12:00:08Z</time>
      </trkpt>
      <trkpt lat="42.29541" lon="-1.42111">
        <ele>387.4</ele>
        <time>2014-11-29T12:00:08Z</time>
      </trkpt>
      <trkpt lat="42.29569" lon="-1.42117">
        <ele>387.6</ele>
        <time>2014-11-29T12:00:08Z</time>
      </trkpt>
      <trkpt lat="42.29603" lon="-1.42126">
        <ele>387.5</ele>
        <time>2014-11-29T12:00:08Z</time>
      </trkpt>
      <trkpt lat="42.29617" lon="-1.42133">
        <ele>387.3</ele>
        <time>2014-11-29T12:00:08Z</time>
      </trkpt>
      <trkpt lat="42.29635" lon="-1.42141">
        <ele>386.9</ele>
        <time>2014-11-29T12:00:08Z</time>
      </trkpt>
      <trkpt lat="42.29645" lon="-1.42152">
        <ele>386.5</ele>
        <time>2014-11-29T12:00:08Z</time>
      </trkpt>
      <trkpt lat="42.29658" lon="-1.42163">
        <ele>386.1</ele>
        <time>2014-11-29T12:00:08Z</time>
      </trkpt>
      <trkpt lat="42.29671" lon="-1.42167">
        <ele>386.1</ele>
        <time>2014-11-29T12:00:08Z</time>
      </trkpt>
      <trkpt lat="42.29691" lon="-1.42171">
        <ele>386.4</ele>
        <time>2014-11-29T12:00:08Z</time>
      </trkpt>
      <trkpt lat="42.29702" lon="-1.42174">
        <ele>386.6</ele>
        <time>2014-11-29T12:00:08Z</time>
      </trkpt>
      <trkpt lat="42.29713" lon="-1.42178">
        <ele>386.9</ele>
        <time>2014-11-29T12:00:08Z</time>
      </trkpt>
      <trkpt lat="42.29727" lon="-1.42196">
        <ele>387.6</ele>
        <time>2014-11-29T12:00:08Z</time>
      </trkpt>
      <trkpt lat="42.29753" lon="-1.42207">
        <ele>388.6</ele>
        <time>2014-11-29T12:00:08Z</time>
      </trkpt>
      <trkpt lat="42.29785" lon="-1.42218">
        <ele>390</ele>
        <time>2014-11-29T12:00:08Z</time>
      </trkpt>
      <trkpt lat="42.29805" lon="-1.42227">
        <ele>390.9</ele>
        <time>2014-11-29T12:00:08Z</time>
      </trkpt>
      <trkpt lat="42.29814" lon="-1.42235">
        <ele>391.3</ele>
        <time>2014-11-29T12:00:08Z</time>
      </trkpt>
      <trkpt lat="42.2983" lon="-1.42238">
        <ele>391.8</ele>
        <time>2014-11-29T12:00:08Z</time>
      </trkpt>
      <trkpt lat="42.29857" lon="-1.42241">
        <ele>392</ele>
        <time>2014-11-29T12:00:08Z</time>
      </trkpt>
      <trkpt lat="42.29894" lon="-1.42235">
        <ele>392.2</ele>
        <time>2014-11-29T12:00:08Z</time>
      </trkpt>
      <trkpt lat="42.29919" lon="-1.42231">
        <ele>392.5</ele>
        <time>2014-11-29T12:00:08Z</time>
      </trkpt>
      <trkpt lat="42.29938" lon="-1.42225">
        <ele>393.1</ele>
        <time>2014-11-29T12:00:08Z</time>
      </trkpt>
      <trkpt lat="42.2996" lon="-1.42213">
        <ele>393.9</ele>
        <time>2014-11-29T12:00:08Z</time>
      </trkpt>
      <trkpt lat="42.29974" lon="-1.422">
        <ele>394.6</ele>
        <time>2014-11-29T12:00:08Z</time>
      </trkpt>
      <trkpt lat="42.29989" lon="-1.42187">
        <ele>395.2</ele>
        <time>2014-11-29T12:00:08Z</time>
      </trkpt>
      <trkpt lat="42.30003" lon="-1.42179">
        <ele>395.7</ele>
        <time>2014-11-29T12:00:08Z</time>
      </trkpt>
      <trkpt lat="42.30031" lon="-1.42166">
        <ele>396</ele>
        <time>2014-11-29T12:00:08Z</time>
      </trkpt>
      <trkpt lat="42.30045" lon="-1.42156">
        <ele>396.4</ele>
        <time>2014-11-29T12:00:08Z</time>
      </trkpt>
      <trkpt lat="42.30058" lon="-1.42139">
        <ele>397.1</ele>
        <time>2014-11-29T12:00:08Z</time>
      </trkpt>
      <trkpt lat="42.30073" lon="-1.4211">
        <ele>398.1</ele>
        <time>2014-11-29T12:00:08Z</time>
      </trkpt>
      <trkpt lat="42.30087" lon="-1.42071">
        <ele>399.4</ele>
        <time>2014-11-29T12:00:08Z</time>
      </trkpt>
      <trkpt lat="42.30099" lon="-1.42024">
        <ele>401.3</ele>
        <time>2014-11-29T12:00:08Z</time>
      </trkpt>
      <trkpt lat="42.30117" lon="-1.41961">
        <ele>403.8</ele>
        <time>2014-11-29T12:00:08Z</time>
      </trkpt>
      <trkpt lat="42.30131" lon="-1.41927">
        <ele>405.5</ele>
        <time>2014-11-29T12:00:08Z</time>
      </trkpt>
      <trkpt lat="42.30142" lon="-1.41892">
        <ele>406.4</ele>
        <time>2014-11-29T12:00:08Z</time>
      </trkpt>
      <trkpt lat="42.30145" lon="-1.41865">
        <ele>406.4</ele>
        <time>2014-11-29T12:00:08Z</time>
      </trkpt>
      <trkpt lat="42.30152" lon="-1.41794">
        <ele>406</ele>
        <time>2014-11-29T12:00:08Z</time>
      </trkpt>
      <trkpt lat="42.30164" lon="-1.41767">
        <ele>406.1</ele>
        <time>2014-11-29T12:00:08Z</time>
      </trkpt>
      <trkpt lat="42.30175" lon="-1.41755">
        <ele>406.1</ele>
        <time>2014-11-29T12:00:08Z</time>
      </trkpt>
      <trkpt lat="42.30199" lon="-1.41742">
        <ele>406.2</ele>
        <time>2014-11-29T12:00:08Z</time>
      </trkpt>
      <trkpt lat="42.30257" lon="-1.41728">
        <ele>406.6</ele>
        <time>2014-11-29T12:00:08Z</time>
      </trkpt>
      <trkpt lat="42.30311" lon="-1.41714">
        <ele>407.4</ele>
        <time>2014-11-29T12:00:08Z</time>
      </trkpt>
      <trkpt lat="42.30344" lon="-1.41708">
        <ele>408</ele>
        <time>2014-11-29T12:00:08Z</time>
      </trkpt>
      <trkpt lat="42.30433" lon="-1.41691">
        <ele>410.6</ele>
        <time>2014-11-29T12:00:08Z</time>
      </trkpt>
      <trkpt lat="42.30469" lon="-1.41684">
        <ele>410.4</ele>
        <time>2014-11-29T12:00:08Z</time>
      </trkpt>
      <trkpt lat="42.30503" lon="-1.41678">
        <ele>409.8</ele>
        <time>2014-11-29T12:00:08Z</time>
      </trkpt>
      <trkpt lat="42.30524" lon="-1.4168">
        <ele>409.8</ele>
        <time>2014-11-29T12:00:08Z</time>
      </trkpt>
      <trkpt lat="42.30525" lon="-1.4168">
        <ele>409.9</ele>
        <time>2014-11-29T08:43:58Z</time>
      </trkpt>
      <trkpt lat="42.30558" lon="-1.41677">
        <ele>409.6</ele>
        <time>2014-11-29T08:43:58Z</time>
      </trkpt>
      <trkpt lat="42.3065" lon="-1.41656">
        <ele>408</ele>
        <time>2014-11-29T08:43:58Z</time>
      </trkpt>
      <trkpt lat="42.30741" lon="-1.41634">
        <ele>407.8</ele>
        <time>2014-11-29T08:43:58Z</time>
      </trkpt>
      <trkpt lat="42.30804" lon="-1.4162">
        <ele>407.7</ele>
        <time>2014-11-29T08:43:58Z</time>
      </trkpt>
      <trkpt lat="42.30862" lon="-1.41608">
        <ele>407.2</ele>
        <time>2014-11-29T08:43:58Z</time>
      </trkpt>
      <trkpt lat="42.3089" lon="-1.416">
        <ele>406.7</ele>
        <time>2014-11-29T08:43:58Z</time>
      </trkpt>
      <trkpt lat="42.30931" lon="-1.41586">
        <ele>406.6</ele>
        <time>2014-11-29T08:43:58Z</time>
      </trkpt>
      <trkpt lat="42.30984" lon="-1.41561">
        <ele>407.5</ele>
        <time>2014-11-29T08:43:58Z</time>
      </trkpt>
      <trkpt lat="42.31043" lon="-1.4153">
        <ele>408.2</ele>
        <time>2014-11-29T08:43:58Z</time>
      </trkpt>
      <trkpt lat="42.31091" lon="-1.41507">
        <ele>407.3</ele>
        <time>2014-11-29T08:43:58Z</time>
      </trkpt>
      <trkpt lat="42.31112" lon="-1.41502">
        <ele>405.9</ele>
        <time>2014-11-29T08:43:58Z</time>
      </trkpt>
      <trkpt lat="42.31167" lon="-1.41496">
        <ele>403.1</ele>
        <time>2014-11-29T08:43:58Z</time>
      </trkpt>
      <trkpt lat="42.31187" lon="-1.4149">
        <ele>403.2</ele>
        <time>2014-11-29T08:43:58Z</time>
      </trkpt>
      <trkpt lat="42.31225" lon="-1.41482">
        <ele>403.7</ele>
        <time>2014-11-29T08:43:58Z</time>
      </trkpt>
      <trkpt lat="42.3126" lon="-1.41481">
        <ele>403.5</ele>
        <time>2014-11-29T08:43:58Z</time>
      </trkpt>
      <trkpt lat="42.31279" lon="-1.41473">
        <ele>403.9</ele>
        <time>2014-11-29T08:43:58Z</time>
      </trkpt>
      <trkpt lat="42.31332" lon="-1.41468">
        <ele>403</ele>
        <time>2014-11-29T08:43:58Z</time>
      </trkpt>
      <trkpt lat="42.31401" lon="-1.41458">
        <ele>400.7</ele>
        <time>2014-11-29T08:43:58Z</time>
      </trkpt>
      <trkpt lat="42.31424" lon="-1.41454">
        <ele>400</ele>
        <time>2014-11-29T08:43:58Z</time>
      </trkpt>
      <trkpt lat="42.3145" lon="-1.41434">
        <ele>400.4</ele>
        <time>2014-11-29T08:43:58Z</time>
      </trkpt>
      <trkpt lat="42.31487" lon="-1.41398">
        <ele>401.4</ele>
        <time>2014-11-29T08:43:58Z</time>
      </trkpt>
      <trkpt lat="42.31534" lon="-1.41358">
        <ele>404.5</ele>
        <time>2014-11-29T08:43:58Z</time>
      </trkpt>
      <trkpt lat="42.31605" lon="-1.41294">
        <ele>409.1</ele>
        <time>2014-11-29T08:43:58Z</time>
      </trkpt>
      <trkpt lat="42.3166" lon="-1.41244">
        <ele>413.4</ele>
        <time>2014-11-29T08:43:58Z</time>
      </trkpt>
      <trkpt lat="42.31705" lon="-1.41204">
        <ele>412.5</ele>
        <time>2014-11-29T08:43:58Z</time>
      </trkpt>
      <trkpt lat="42.31723" lon="-1.41193">
        <ele>412</ele>
        <time>2014-11-29T08:43:58Z</time>
      </trkpt>
      <trkpt lat="42.31742" lon="-1.41185">
        <ele>411.4</ele>
        <time>2014-11-29T08:43:58Z</time>
      </trkpt>
      <trkpt lat="42.31805" lon="-1.41173">
        <ele>410.4</ele>
        <time>2014-11-29T08:43:58Z</time>
      </trkpt>
      <trkpt lat="42.31858" lon="-1.41163">
        <ele>409.8</ele>
        <time>2014-11-29T08:43:58Z</time>
      </trkpt>
      <trkpt lat="42.31918" lon="-1.4115">
        <ele>409.2</ele>
        <time>2014-11-29T08:43:58Z</time>
      </trkpt>
      <trkpt lat="42.3194" lon="-1.41146">
        <ele>408.3</ele>
        <time>2014-11-29T08:43:58Z</time>
      </trkpt>
      <trkpt lat="42.31959" lon="-1.41145">
        <ele>407.6</ele>
        <time>2014-11-29T08:43:58Z</time>
      </trkpt>
      <trkpt lat="42.31999" lon="-1.41153">
        <ele>406.2</ele>
        <time>2014-11-29T08:43:58Z</time>
      </trkpt>
      <trkpt lat="42.32051" lon="-1.41163">
        <ele>406.1</ele>
        <time>2014-11-29T08:43:58Z</time>
      </trkpt>
      <trkpt lat="42.32091" lon="-1.41181">
        <ele>405.6</ele>
        <time>2014-11-29T08:43:58Z</time>
      </trkpt>
      <trkpt lat="42.32116" lon="-1.41185">
        <ele>405</ele>
        <time>2014-11-29T08:43:58Z</time>
      </trkpt>
      <trkpt lat="42.32142" lon="-1.41159">
        <ele>404.7</ele>
        <time>2014-11-29T08:43:58Z</time>
      </trkpt>
      <trkpt lat="42.32162" lon="-1.41148">
        <ele>404.3</ele>
        <time>2014-11-29T08:43:58Z</time>
      </trkpt>
      <trkpt lat="42.32204" lon="-1.41144">
        <ele>404.3</ele>
        <time>2014-11-29T08:43:58Z</time>
      </trkpt>
      <trkpt lat="42.32277" lon="-1.41138">
        <ele>404.2</ele>
        <time>2014-11-29T08:43:58Z</time>
      </trkpt>
      <trkpt lat="42.32332" lon="-1.41133">
        <ele>404</ele>
        <time>2014-11-29T08:43:58Z</time>
      </trkpt>
      <trkpt lat="42.32403" lon="-1.41127">
        <ele>402.7</ele>
        <time>2014-11-29T08:43:58Z</time>
      </trkpt>
      <trkpt lat="42.32474" lon="-1.41122">
        <ele>401.2</ele>
        <time>2014-11-29T08:43:58Z</time>
      </trkpt>
      <trkpt lat="42.32523" lon="-1.41116">
        <ele>400.5</ele>
        <time>2014-11-29T08:43:58Z</time>
      </trkpt>
      <trkpt lat="42.3257" lon="-1.41113">
        <ele>400.3</ele>
        <time>2014-11-29T08:43:58Z</time>
      </trkpt>
      <trkpt lat="42.32597" lon="-1.41116">
        <ele>400.3</ele>
        <time>2014-11-29T08:43:58Z</time>
      </trkpt>
      <trkpt lat="42.32647" lon="-1.41131">
        <ele>399.7</ele>
        <time>2014-11-29T08:43:58Z</time>
      </trkpt>
      <trkpt lat="42.32724" lon="-1.41157">
        <ele>399.1</ele>
        <time>2014-11-29T08:43:58Z</time>
      </trkpt>
      <trkpt lat="42.32805" lon="-1.41184">
        <ele>397.9</ele>
        <time>2014-11-29T08:43:58Z</time>
      </trkpt>
      <trkpt lat="42.32875" lon="-1.41205">
        <ele>396.8</ele>
        <time>2014-11-29T08:43:58Z</time>
      </trkpt>
      <trkpt lat="42.32945" lon="-1.41229">
        <ele>394.8</ele>
        <time>2014-11-29T08:43:58Z</time>
      </trkpt>
      <trkpt lat="42.33013" lon="-1.41249">
        <ele>394.3</ele>
        <time>2014-11-29T08:43:58Z</time>
      </trkpt>
      <trkpt lat="42.33087" lon="-1.41275">
        <ele>394.4</ele>
        <time>2014-11-29T08:43:58Z</time>
      </trkpt>
      <trkpt lat="42.33146" lon="-1.41292">
        <ele>393.1</ele>
        <time>2014-11-29T08:43:58Z</time>
      </trkpt>
      <trkpt lat="42.33211" lon="-1.41314">
        <ele>392.5</ele>
        <time>2014-11-29T08:43:58Z</time>
      </trkpt>
      <trkpt lat="42.33287" lon="-1.41338">
        <ele>391</ele>
        <time>2014-11-29T08:43:58Z</time>
      </trkpt>
      <trkpt lat="42.33355" lon="-1.4136">
        <ele>389.7</ele>
        <time>2014-11-29T08:43:58Z</time>
      </trkpt>
      <trkpt lat="42.33443" lon="-1.41388">
        <ele>387.8</ele>
        <time>2014-11-29T08:43:58Z</time>
      </trkpt>
      <trkpt lat="42.33474" lon="-1.41399">
        <ele>387</ele>
        <time>2014-11-29T08:43:58Z</time>
      </trkpt>
      <trkpt lat="42.33493" lon="-1.41392">
        <ele>386.7</ele>
        <time>2014-11-29T08:43:58Z</time>
      </trkpt>
      <trkpt lat="42.33542" lon="-1.41372">
        <ele>386.3</ele>
        <time>2014-11-29T08:43:58Z</time>
      </trkpt>
      <trkpt lat="42.33597" lon="-1.4135">
        <ele>385.7</ele>
        <time>2014-11-29T08:43:58Z</time>
      </trkpt>
      <trkpt lat="42.33651" lon="-1.41331">
        <ele>385.2</ele>
        <time>2014-11-29T08:43:58Z</time>
      </trkpt>
      <trkpt lat="42.33732" lon="-1.41298">
        <ele>384.9</ele>
        <time>2014-11-29T08:43:58Z</time>
      </trkpt>
      <trkpt lat="42.33754" lon="-1.41287">
        <ele>384.9</ele>
        <time>2014-11-29T08:43:58Z</time>
      </trkpt>
      <trkpt lat="42.33774" lon="-1.41267">
        <ele>384.1</ele>
        <time>2014-11-29T08:43:58Z</time>
      </trkpt>
      <trkpt lat="42.33818" lon="-1.41217">
        <ele>382.5</ele>
        <time>2014-11-29T08:43:58Z</time>
      </trkpt>
      <trkpt lat="42.33858" lon="-1.41173">
        <ele>382.2</ele>
        <time>2014-11-29T08:43:58Z</time>
      </trkpt>
      <trkpt lat="42.33878" lon="-1.41151">
        <ele>382.6</ele>
        <time>2014-11-29T08:43:58Z</time>
      </trkpt>
      <trkpt lat="42.33896" lon="-1.41142">
        <ele>382.7</ele>
        <time>2014-11-29T08:43:58Z</time>
      </trkpt>
      <trkpt lat="42.33927" lon="-1.41138">
        <ele>382.4</ele>
        <time>2014-11-29T08:43:58Z</time>
      </trkpt>
      <trkpt lat="42.33999" lon="-1.41137">
        <ele>381</ele>
        <time>2014-11-29T08:43:58Z</time>
      </trkpt>
      <trkpt lat="42.34043" lon="-1.41135">
        <ele>382.4</ele>
        <time>2014-11-29T08:43:58Z</time>
      </trkpt>
      <trkpt lat="42.34061" lon="-1.41131">
        <ele>382.9</ele>
        <time>2014-11-29T08:43:58Z</time>
      </trkpt>
      <trkpt lat="42.34089" lon="-1.41107">
        <ele>383.1</ele>
        <time>2014-11-29T08:43:58Z</time>
      </trkpt>
      <trkpt lat="42.34127" lon="-1.41076">
        <ele>381.4</ele>
        <time>2014-11-29T08:43:58Z</time>
      </trkpt>
      <trkpt lat="42.3419" lon="-1.41025">
        <ele>378.7</ele>
        <time>2014-11-29T08:43:58Z</time>
        <extensions>
          <visugpx:TrkExtension xmlns:visugpx="https://www.visugpx.com/editgpx/">
            <visugpx:node>2</visugpx:node>
            </visugpx:TrkExtension>
        </extensions>
      </trkpt>
    </trkseg>
  </trk>
</gpx>